Index of /watch_images/8387

[ICO]NameLast modifiedSizeDescription

[PARENTDIR]Parent Directory  -  
[IMG]83866591-biker-on-a-motorcycleft160_medium.jpg2016-12-05 05:14 191K 
[IMG]83866595-bullets-for-the-shotgunft160_medium.jpg2016-12-05 05:13 136K 
[IMG]83866598-airport-moving-sidewalk-also-travelator-walkalator-and-movator-ft160_medium.jpg2016-12-05 05:11 188K 
[IMG]83866599-moscow-city-skyscrapers-and-famous-buildings-in-grey-colorft160_medium.jpg2016-12-05 05:09 140K 
[IMG]83866604-biker-on-a-motorcycleft160_medium.jpg2016-12-05 05:09 210K 
[IMG]83866606-biker-on-a-motorcycleft160_medium.jpg2016-12-05 05:10 205K 
[IMG]83866622-woman-calling-on-the-phone-at-the-airportft160_medium.jpg2016-12-05 05:08 187K 
[IMG]83866629-obreros-trabajando-sobre-un-tejadoft160_medium.jpg2016-12-05 05:10 157K 
[IMG]83866640-orangutanft160_medium.jpg2016-12-05 05:10 224K 
[IMG]83866653-bullets-for-the-shotgunft160_medium.jpg2016-12-05 05:09 132K 
[IMG]83866656ft160_medium.jpg2016-12-05 05:07 146K 
[IMG]83866668-house-in-human-handsft160_medium.jpg2016-12-05 05:13 163K 
[IMG]83866674-thanksgiving-popartft160_medium.jpg2016-12-05 05:12 190K 
[IMG]83866675-contact-usft160_medium.jpg2016-12-05 05:14 141K 
[IMG]83866681-rhododendron-bushft160_medium.jpg2016-12-05 05:14 228K 
[IMG]83866688-rhododendron-bushft160_medium.jpg2016-12-05 05:13 216K 
[IMG]83866694-rhododendron-bushft160_medium.jpg2016-12-05 05:14 254K 
[IMG]83866705-field-of-daisyft160_medium.jpg2016-12-05 05:10 252K 
[IMG]83866709-field-of-daisyft160_medium.jpg2016-12-05 05:09 201K 
[IMG]83866710-mature-woman-in-deep-sitting-thought-at-home-ft160_medium.jpg2016-12-05 05:09 119K 
[IMG]83866715-modern-large-image-sensors-ft160_medium.jpg2016-12-05 05:14 132K 
[IMG]83866716-two-churches-in-small-italian-town-ft160_medium.jpg2016-12-05 05:10 184K 
[IMG]83866731-pasta-with-olive-oilft160_medium.jpg2016-12-05 05:11 179K 
[IMG]83866732-condoms-iconft160_medium.jpg2016-12-05 05:11 173K 
[IMG]83866736-big-heap-real-soils-with-insectsft160_medium.jpg2016-12-05 05:09 150K 
[IMG]83866739-stockenteft160_medium.jpg2016-12-05 05:13 166K 
[IMG]83866746-mustache-and-glasses-vector-icon-ft160_medium.jpg2016-12-05 05:10 157K 
[IMG]83866748-mustache-and-glasses-vector-icon-ft160_medium.jpg2016-12-05 05:13 191K 
[IMG]83866752-condoms-iconft160_medium.jpg2016-12-05 05:14 113K 
[IMG]83866757-condoms-iconft160_medium.jpg2016-12-05 05:11 148K 
[IMG]83866761-condoms-iconft160_medium.jpg2016-12-05 05:09 138K 
[IMG]83866773-realistic-illustration-of-stethoscope-on-green-clipboard-ft160_medium.jpg2016-12-05 05:14 141K 
[IMG]83866787-sparschwein-aus-glasft160_medium.jpg2016-12-05 05:11 156K 
[IMG]83866796-fruit-varietyft160_medium.jpg2016-12-05 05:10 193K 
[IMG]83866799-handshakeft160_medium.jpg2016-12-05 05:14 141K 
[IMG]83866808ft160_medium.jpg2016-12-05 05:11 161K 
[IMG]83866810-fruit-varietyft160_medium.jpg2016-12-05 05:10 201K 
[IMG]83866826-shotgunft160_medium.jpg2016-12-05 05:12 138K 
[IMG]83866837-rhododendron-bushft160_medium.jpg2016-12-05 05:08 228K 
[IMG]83866844-baroque-colorful-lace-seamless-pattern-vintage-butterfly-wingsft160_medium.jpg2016-12-05 05:13 269K 
[IMG]83866856-woman-in-black-dress-with-car-tireft160_medium.jpg2016-12-05 05:08 127K 
[IMG]83866858-sea-starft160_medium.jpg2016-12-05 05:08 134K 
[IMG]83866859-woman-in-black-dress-with-car-tireft160_medium.jpg2016-12-05 05:11 130K 
[IMG]83866860-woman-in-black-dress-with-car-tireft160_medium.jpg2016-12-05 05:08 129K 
[IMG]83866861-fruit-varietyft160_medium.jpg2016-12-05 05:09 186K 
[IMG]83866863-rhododendron-bushft160_medium.jpg2016-12-05 05:11 228K 
[IMG]83866870-shotgunft160_medium.jpg2016-12-05 05:08 138K 
[IMG]83866871-abstract-futuristic-backgroundft160_medium.jpg2016-12-05 05:14 139K 
[IMG]83866876-woman-in-black-dress-with-car-tireft160_medium.jpg2016-12-05 05:14 126K 
[IMG]83866880-woman-in-black-dress-with-car-tireft160_medium.jpg2016-12-05 05:13 138K 
[IMG]83866881-fitness-modelft160_medium.jpg2016-12-05 05:11 123K 
[IMG]83866883-woman-in-black-dress-with-car-tireft160_medium.jpg2016-12-05 05:12 132K 
[IMG]83866884-glasses-isolated-over-the-white-background-ft160_medium.jpg2016-12-05 05:07 124K 
[IMG]83866885-field-of-daisyft160_medium.jpg2016-12-05 05:11 252K 
[IMG]83866886-handshakeft160_medium.jpg2016-12-05 05:09 136K 
[IMG]83866890-illustration-of-golden-menorah-with-seven-candlesft160_medium.jpg2016-12-05 05:11 153K 
[IMG]83866892-field-of-daisyft160_medium.jpg2016-12-05 05:08 242K 
[IMG]83866893-fitness-modelft160_medium.jpg2016-12-05 05:10 127K 
[IMG]83866899-young-blond-woman-with-beer-mugft160_medium.jpg2016-12-05 05:12 134K 
[IMG]83866902ft160_medium.jpg2016-12-05 05:14 136K 
[IMG]83866905-vector-image-of-an-crocodile-design-on-white-backgroundft160_medium.jpg2016-12-05 05:13 146K 
[IMG]83866910-young-blond-woman-with-beer-mugft160_medium.jpg2016-12-05 05:14 131K 
[IMG]83866926-shotgunft160_medium.jpg2016-12-05 05:09 133K 
[IMG]83866935-field-of-daisyft160_medium.jpg2016-12-05 05:14 210K 
[IMG]83866951-female-nymph-with-knifeft160_medium.jpg2016-12-05 05:11 120K 
[IMG]83866953-vintage-hand-painted-plateft160_medium.jpg2016-12-05 05:08 242K 
[IMG]83866958ft160_medium.jpg2016-12-05 05:13 168K 
[IMG]83866961-japanese-style-garden-in-kyoto-templeft160_medium.jpg2016-12-05 05:09 173K 
[IMG]83866966-wild-red-poppy-flowers-in-meadowft160_medium.jpg2016-12-05 05:13 194K 
[IMG]83866967-beautiful-blond-womanft160_medium.jpg2016-12-05 05:10 138K 
[IMG]83866968-flieder-syringaft160_medium.jpg2016-12-05 05:13 174K 
[IMG]83866976-rhododendron-bushft160_medium.jpg2016-12-05 05:10 229K 
[IMG]83866988-handshakeft160_medium.jpg2016-12-05 05:09 132K 
[IMG]83866998-mobile-shopping-conceptft160_medium.jpg2016-12-05 05:12 165K 
[IMG]83867003-beautiful-blond-womanft160_medium.jpg2016-12-05 05:11 150K 
[IMG]83867005-beautiful-blond-womanft160_medium.jpg2016-12-05 05:08 143K 
[IMG]83867011-blueberries-berry-ft160_medium.jpg2016-12-05 05:13 210K 
[IMG]83867022-cartoon-space-adventure-iconsft160_medium.jpg2016-12-05 05:07 158K 
[IMG]83867024-beautiful-blond-womanft160_medium.jpg2016-12-05 05:11 147K 
[IMG]83867025-glass-of-beerft160_medium.jpg2016-12-05 05:08 129K 
[IMG]83867026-rhododendron-bushft160_medium.jpg2016-12-05 05:13 253K 
[IMG]83867032-japanese-style-garden-in-kyoto-templeft160_medium.jpg2016-12-05 05:14 155K 
[IMG]83867048-blueberries-berry-ft160_medium.jpg2016-12-05 05:10 169K 
[IMG]83867058ft160_medium.jpg2016-12-05 05:08 176K 
[IMG]83867062-handshakeft160_medium.jpg2016-12-05 05:11 133K 
[IMG]83867071ft160_medium.jpg2016-12-05 05:14 176K 
[IMG]83867072-rhododendron-bushft160_medium.jpg2016-12-05 05:10 277K 
[IMG]83867075-white-wine-and-cheeseft160_medium.jpg2016-12-05 05:10 116K 
[IMG]83867077-red-wine-bottle-and-glassesft160_medium.jpg2016-12-05 05:14 139K 
[IMG]83867080-various-types-of-cheesesft160_medium.jpg2016-12-05 05:08 139K 
[IMG]83867082-glass-of-beerft160_medium.jpg2016-12-05 05:12 135K 
[IMG]83867090-wooden-observation-towerft160_medium.jpg2016-12-05 05:14 126K 
[IMG]83867091-white-wine-cheese-and-grapeft160_medium.jpg2016-12-05 05:12 144K 
[IMG]83867096-beautiful-gray-catft160_medium.jpg2016-12-05 05:13 129K 
[IMG]83867104ft160_medium.jpg2016-12-05 05:10 134K 
[IMG]83867106-two-grilled-sausagesft160_medium.jpg2016-12-05 05:08 137K 
[IMG]83867112-blueberries-berry-ft160_medium.jpg2016-12-05 05:11 172K 
[IMG]83867120ft160_medium.jpg2016-12-05 05:10 141K 
[IMG]83867121-hong-kong-international-airportft160_medium.jpg2016-12-05 05:14 194K 
[IMG]83867126ft160_medium.jpg2016-12-05 05:08 127K 
[IMG]83867131-field-of-daisyft160_medium.jpg2016-12-05 05:07 209K 
[IMG]83867132-glass-of-pure-water-with-ice-cubesft160_medium.jpg2016-12-05 05:14 132K 
[IMG]83867133ft160_medium.jpg2016-12-05 05:12 148K 
[IMG]83867136-field-of-daisyft160_medium.jpg2016-12-05 05:08 216K 
[IMG]83867137-four-ripe-green-applesft160_medium.jpg2016-12-05 05:10 140K 
[IMG]83867139-two-tropical-cocktails-and-orangeft160_medium.jpg2016-12-05 05:08 143K 
[IMG]83867140-glass-cup-of-black-teaft160_medium.jpg2016-12-05 05:14 130K 
[IMG]83867143ft160_medium.jpg2016-12-05 05:07 134K 
[IMG]83867145ft160_medium.jpg2016-12-05 05:11 131K 
[IMG]83867148-fireworksft160_medium.jpg2016-12-05 05:12 189K 
[IMG]83867151-fresh-corn-flakes-with-berries-and-milkft160_medium.jpg2016-12-05 05:07 150K 
[IMG]83867152-outline-stockholm-skyline-with-blue-buildingsft160_medium.jpg2016-12-05 05:08 154K 
[IMG]83867165ft160_medium.jpg2016-12-05 05:09 119K 
[IMG]83867166-stockholm-skyline-with-grey-buildings-and-blue-skyft160_medium.jpg2016-12-05 05:14 149K 
[IMG]83867170ft160_medium.jpg2016-12-05 05:14 134K 
[IMG]83867172-spargel-mit-kartoffeln-und-sauce-hollandaise-ft160_medium.jpg2016-12-05 05:14 160K 
[IMG]83867174-woman-with-smart-phoneft160_medium.jpg2016-12-05 05:13 186K 
[IMG]83867178-vector-wood-blank-backgroundft160_medium.jpg2016-12-05 05:13 167K 
[IMG]83867180-the-ancient-city-ft160_medium.jpg2016-12-05 05:10 161K 
[IMG]83867183-call-centerft160_medium.jpg2016-12-05 05:10 171K 
[IMG]83867186ft160_medium.jpg2016-12-05 05:08 143K 
[IMG]83867204ft160_medium.jpg2016-12-05 05:12 141K 
[IMG]83867208-rural-patioft160_medium.jpg2016-12-05 05:08 204K 
[IMG]83867223-modern-grey-computer-mouse-connected-to-the-blue-word-cloud-left160_medium.jpg2016-12-05 05:10 163K 
[IMG]83867226-rhododendron-bushft160_medium.jpg2016-12-05 05:12 189K 
[IMG]83867233-glass-of-beerft160_medium.jpg2016-12-05 05:12 156K 
[IMG]83867235-rhododendron-bushft160_medium.jpg2016-12-05 05:14 194K 
[IMG]83867239-stages-of-consumer-interest-sales-funnelft160_medium.jpg2016-12-05 05:11 132K 
[IMG]83867240-syringa-bushft160_medium.jpg2016-12-05 05:07 215K 
[IMG]83867241-abstract-3d-backgroundft160_medium.jpg2016-12-05 05:10 203K 
[IMG]83867242-sketch-spanish-castanet-in-vintage-styleft160_medium.jpg2016-12-05 05:14 212K 
[IMG]83867248-faq-cubes-3d-and-question-mark-render-illustration-ft160_medium.jpg2016-12-05 05:09 142K 
[IMG]83867250-white-flowers-bushft160_medium.jpg2016-12-05 05:08 234K 
[IMG]83867251-photo-album-background-studio-lights-wavy-filmstrip-and-ribbft160_medium.jpg2016-12-05 05:07 136K 
[IMG]83867252-water-dropft160_medium.jpg2016-12-05 05:08 160K 
[IMG]83867254-blue-support-word-and-buttonft160_medium.jpg2016-12-05 05:13 154K 
[IMG]83867259-water-dropft160_medium.jpg2016-12-05 05:12 123K 
[IMG]83867263-e-mail-direct-marketing-communication-conceptft160_medium.jpg2016-12-05 05:11 152K 
[IMG]83867265-strawberry-smoothieft160_medium.jpg2016-12-05 05:14 158K 
[IMG]83867268-abstract-image-of-cubes-background-in-blue-tonedft160_medium.jpg2016-12-05 05:11 166K 
[IMG]83867269-water-dropft160_medium.jpg2016-12-05 05:10 146K 
[IMG]83867270-the-old-cartft160_medium.jpg2016-12-05 05:14 204K 
[IMG]83867271-colorful-cartoon-bugsft160_medium.jpg2016-12-05 05:14 175K 
[IMG]83867277-water-dropft160_medium.jpg2016-12-05 05:12 136K 
[IMG]83867281-call-center-operatorft160_medium.jpg2016-12-05 05:09 167K 
[IMG]83867282-herrliches-wetter-am-seeft160_medium.jpg2016-12-05 05:14 149K 
[IMG]83867286-water-dropft160_medium.jpg2016-12-05 05:10 133K 
[IMG]83867287-red-cubes-backgroundft160_medium.jpg2016-12-05 05:11 176K 
[IMG]83867291-blank-paperft160_medium.jpg2016-12-05 05:14 100K 
[IMG]83867293-water-dropft160_medium.jpg2016-12-05 05:07 136K 
[IMG]83867300-water-dropft160_medium.jpg2016-12-05 05:14 126K 
[IMG]83867306-bosphorus-bridgeft160_medium.jpg2016-12-05 05:11 137K 
[IMG]83867322-glass-of-beerft160_medium.jpg2016-12-05 05:12 140K 
[IMG]83867327-radiologist-or-traumatologist-medical-conceptft160_medium.jpg2016-12-05 05:09 151K 
[IMG]83867332-flying-over-ipiranga-in-sao-paulo-brazil-latin-americaft160_medium.jpg2016-12-05 05:13 147K 
[IMG]83867334-wedding-couple-in-love-near-white-flowers-treesft160_medium.jpg2016-12-05 05:11 185K 
[IMG]83867338-vegetablesft160_medium.jpg2016-12-05 05:09 205K 
[IMG]83867340-stack-of-old-photosft160_medium.jpg2016-12-05 05:09 137K 
[IMG]83867342ft160_medium.jpg2016-12-05 05:13 145K 
[IMG]83867354-wedding-couple-in-love-near-white-flowers-treesft160_medium.jpg2016-12-05 05:11 188K 
[IMG]83867355-stack-of-old-photos-isolated-on-white-background-ft160_medium.jpg2016-12-05 05:08 136K 
[IMG]83867357--mother-and-daughter-after-quarrelft160_medium.jpg2016-12-05 05:10 170K 
[IMG]83867368-red-boxing-gloves-muay-thai-for-fightft160_medium.jpg2016-12-05 05:08 149K 
[IMG]83867380-raindrops-on-roseft160_medium.jpg2016-12-05 05:09 166K 
[IMG]83867385-gac-fruit-ft160_medium.jpg2016-12-05 05:09 140K 
[IMG]83867393ft160_medium.jpg2016-12-05 05:11 137K 
[IMG]83867395-man-standing-on-huge-3d-concrete-question-mark-sky-cloudsft160_medium.jpg2016-12-05 05:09 174K 
[IMG]83867408-transportation-iconsft160_medium.jpg2016-12-05 05:08 179K 
[IMG]83867419ft160_medium.jpg2016-12-05 05:13 137K 
[IMG]83867426-red-boxing-gloves-muay-thai-for-fightft160_medium.jpg2016-12-05 05:13 176K 
[IMG]83867436-agriculture-ft160_medium.jpg2016-12-05 05:14 183K 
[IMG]83867442-close-up-of-color-strokes-on-white-backgroundft160_medium.jpg2016-12-05 05:13 157K 
[IMG]83867448-roman-forum-romeft160_medium.jpg2016-12-05 05:13 205K 
[IMG]83867451-businessman-facing-four-huge-concrete-puzzles-connected-togetherft160_medium.jpg2016-12-05 05:10 143K 
[IMG]83867456-vegetablesft160_medium.jpg2016-12-05 05:09 180K 
[IMG]83867457-fresh-avocado-isolated-on-whiteft160_medium.jpg2016-12-05 05:10 152K 
[IMG]83867464-dawn-on-the-lake-ft160_medium.jpg2016-12-05 05:08 126K 
[IMG]83867467-man-carrying-risk-concrete-word-on-ridge-with-cloudscape-cityscaft160_medium.jpg2016-12-05 05:10 150K 
[IMG]83867468-kontaktft160_medium.jpg2016-12-05 05:13 144K 
[IMG]83867474-frau-mit-trinkglasft160_medium.jpg2016-12-05 05:13 154K 
[IMG]83867478-shwesandaw-pagoda-in-the-sunset-time-buddhist-pagoda-located-inft160_medium.jpg2016-12-05 05:09 145K 
[IMG]83867486-innereinft160_medium.jpg2016-12-05 05:12 176K 
[IMG]83867490-man-carrying-red-risk-word-on-ridge-with-cloudscape-cityscapeft160_medium.jpg2016-12-05 05:11 144K 
[IMG]83867498-fresh-flowers-decoration-ft160_medium.jpg2016-12-05 05:14 226K 
[IMG]83867503-fresh-avocado-isolated-on-whiteft160_medium.jpg2016-12-05 05:09 155K 
[IMG]83867504-ideeft160_medium.jpg2016-12-05 05:08 138K 
[IMG]83867515-businessman-climbing-ladder-on-four-huge-puzzles-connected-concrft160_medium.jpg2016-12-05 05:14 161K 
[IMG]83867521-businessman-climbing-ladder-puzzles-concrete-wall-red-fear-wordft160_medium.jpg2016-12-05 05:10 173K 
[IMG]83867522ft160_medium.jpg2016-12-05 05:14 142K 
[IMG]83867532ft160_medium.jpg2016-12-05 05:11 138K 
[IMG]83867542-ideeft160_medium.jpg2016-12-05 05:09 145K 
[IMG]83867546-international-business-meetingsft160_medium.jpg2016-12-05 05:10 204K 
[IMG]83867550-flying-over-ipiranga-in-sao-paulo-brazil-latin-americaft160_medium.jpg2016-12-05 05:10 147K 
[IMG]83867561-recycle-paper-ball-ft160_medium.jpg2016-12-05 05:09 132K 
[IMG]83867565ft160_medium.jpg2016-12-05 05:13 140K 
[IMG]83867575-halloween-iconsft160_medium.jpg2016-12-05 05:11 173K 
[IMG]83867579-online-shopping-3d-conceptft160_medium.jpg2016-12-05 05:14 186K 
[IMG]83867580-wellness-background-ft160_medium.jpg2016-12-05 05:09 116K 
[IMG]83867585ft160_medium.jpg2016-12-05 05:13 168K 
[IMG]83867587-search-online-goodsft160_medium.jpg2016-12-05 05:12 175K 
[IMG]83867588-ideeft160_medium.jpg2016-12-05 05:09 136K 
[IMG]83867590-recycle-paper-ball-ft160_medium.jpg2016-12-05 05:14 143K 
[IMG]83867597ft160_medium.jpg2016-12-05 05:12 141K 
[IMG]83867599-laptop-computer-with-lock-internet-protectionft160_medium.jpg2016-12-05 05:09 162K 
[IMG]83867605ft160_medium.jpg2016-12-05 05:11 139K 
[IMG]83867608-abstract-image-of-traffic-in-the-city-ft160_medium.jpg2016-12-05 05:09 164K 
[IMG]83867612-global-communication-concept-social-networkft160_medium.jpg2016-12-05 05:08 216K 
[IMG]83867615-graduation-icon-setft160_medium.jpg2016-12-05 05:09 195K 
[IMG]83867616-relax-word-handwritten-in-sand-on-beachft160_medium.jpg2016-12-05 05:13 142K 
[IMG]83867637-investor-meeting-with-the-builderft160_medium.jpg2016-12-05 05:08 192K 
[IMG]83867638-dried-grass-ft160_medium.jpg2016-12-05 05:13 147K 
[IMG]83867653-graduation-vector-icon-set-infographicft160_medium.jpg2016-12-05 05:08 151K 
[IMG]83867659-men-and-women-graduates-with-hat-and-wreathft160_medium.jpg2016-12-05 05:14 162K 
[IMG]83867664-recycle-paper-ball-ft160_medium.jpg2016-12-05 05:11 149K 
[IMG]83867669-tree-cherry-ft160_medium.jpg2016-12-05 05:08 110K 
[IMG]83867671-recycle-paper-ball-ft160_medium.jpg2016-12-05 05:12 157K 
[IMG]83867673ft160_medium.jpg2016-12-05 05:14 142K 
[IMG]83867677-candle-ft160_medium.jpg2016-12-05 05:13 108K 
[IMG]83867681-pillows-on-the-bed-in-bedroomft160_medium.jpg2016-12-05 05:12 124K 
[IMG]83867684-ornamental-pattern-for-invitations-greeting-cards-ft160_medium.jpg2016-12-05 05:09 160K 
[IMG]83867689-ornamental-pattern-for-invitations-greeting-cards-ft160_medium.jpg2016-12-05 05:10 175K 
[IMG]83867696-ornamental-pattern-for-invitations-greeting-cards-ft160_medium.jpg2016-12-05 05:13 127K 
[IMG]83867713-man-carrying-risk-concrete-word-isolated-on-whiteft160_medium.jpg2016-12-05 05:10 140K 
[IMG]83867722-ornamental-pattern-for-invitations-greeting-cards-ft160_medium.jpg2016-12-05 05:10 178K 
[IMG]83867729-man-climbing-ladder-puzzles-concrete-wall-red-fear-wordft160_medium.jpg2016-12-05 05:10 163K 
[IMG]83867731-ornamental-pattern-for-invitations-greeting-cards-ft160_medium.jpg2016-12-05 05:12 157K 
[IMG]83867741-floral-background-with-decorative-branch-vector-illustration-ft160_medium.jpg2016-12-05 05:08 191K 
[IMG]83867751-ornamental-floral-element-for-design-in-vintage-stile-ft160_medium.jpg2016-12-05 05:08 205K 
[IMG]83867760-vintage-industrial-mechanical-backgroundft160_medium.jpg2016-12-05 05:14 140K 
[IMG]83867774-male-model-kickboxing-ft160_medium.jpg2016-12-05 05:13 129K 
[IMG]83867777-ornamental-floral-element-for-design-in-vintage-stile-ft160_medium.jpg2016-12-05 05:11 206K 
[IMG]83867782-working-placeft160_medium.jpg2016-12-05 05:11 163K 
[IMG]83867788-newspaper-ball-ft160_medium.jpg2016-12-05 05:12 162K 
[IMG]83867792-camouflage-winter-jacket-with-black-collar-ft160_medium.jpg2016-12-05 05:13 140K 
[IMG]83867795-menschen-auf-der-rolltreppeft160_medium.jpg2016-12-05 05:12 130K 
[IMG]83867799-ornamental-floral-element-for-design-in-vintage-stile-ft160_medium.jpg2016-12-05 05:13 197K 
[IMG]83867804-martini-glass-with-ice-among-ice-cubes-on-a-white-backgroundft160_medium.jpg2016-12-05 05:11 125K 
[IMG]83867809-ornamental-floral-seamless-for-design-in-vintage-stile-ft160_medium.jpg2016-12-05 05:12 317K 
[IMG]83867810-cute-spring-iconsft160_medium.jpg2016-12-05 05:13 159K 
[IMG]83867811-black-big-data-cubeft160_medium.jpg2016-12-05 05:07 163K 
[IMG]83867813-fresh-salmon-steakft160_medium.jpg2016-12-05 05:10 194K 
[IMG]83867815-newspaper-ball-ft160_medium.jpg2016-12-05 05:13 171K 
[IMG]83867828-newspaper-ball-ft160_medium.jpg2016-12-05 05:10 174K 
[IMG]83867835-safety-helmet-gloves-ft160_medium.jpg2016-12-05 05:12 152K 
[IMG]83867840-vintage-industrial-mechanical-backgroundft160_medium.jpg2016-12-05 05:11 191K 
[IMG]83867845-blue-silk-drapery-ft160_medium.jpg2016-12-05 05:08 139K 
[IMG]83867846-set-of-decorative-elements-for-design-vector-illustration-ft160_medium.jpg2016-12-05 05:11 190K 
[IMG]83867852-safety-helmet-gloves-ft160_medium.jpg2016-12-05 05:13 165K 
[IMG]83867861-grauer-stuhl-auf-holzboden-ft160_medium.jpg2016-12-05 05:14 119K 
[IMG]83867865-man-climbing-ladder-on-four-huge-puzzles-connected-concrete-wallft160_medium.jpg2016-12-05 05:08 171K 
[IMG]83867866-e-commerce-shopping-carts-with-signs-of-e-commerceft160_medium.jpg2016-12-05 05:14 176K 
[IMG]83867873-sakura-tree-cherry-on-the-garden-ft160_medium.jpg2016-12-05 05:09 215K 
[IMG]83867881-global-e-mail-email-concept-word-email-with-envelopeft160_medium.jpg2016-12-05 05:14 182K 
[IMG]83867884ft160_medium.jpg2016-12-05 05:11 159K 
[IMG]83867891-focus-group-people-with-magnifying-glassft160_medium.jpg2016-12-05 05:09 183K 
[IMG]83867897-safety-helmet-gloves-ft160_medium.jpg2016-12-05 05:08 168K 
[IMG]83867898ft160_medium.jpg2016-12-05 05:14 142K 
[IMG]83867900-laptop-on-lifebuoy-over-white-support-service-conceptft160_medium.jpg2016-12-05 05:12 150K 
[IMG]83867910-boy-with-a-soccer-ballft160_medium.jpg2016-12-05 05:09 142K 
[IMG]83867917ft160_medium.jpg2016-12-05 05:12 158K 
[IMG]83867919-canal-saint-martin-a-parisft160_medium.jpg2016-12-05 05:08 217K 
[IMG]83867940-man-with-bucket-and-mop-ft160_medium.jpg2016-12-05 05:14 133K 
[IMG]83867942-digital-perfectly-loop-of-green-matrix-numbers-backgroundft160_medium.jpg2016-12-05 05:14 171K 
[IMG]83867948-fresh-salmon-steakft160_medium.jpg2016-12-05 05:08 156K 
[IMG]83867956-black-silk-drapery-ft160_medium.jpg2016-12-05 05:13 140K 
[IMG]83867961ft160_medium.jpg2016-12-05 05:09 152K 
[IMG]83867968-walnut-kernels-as-background-ft160_medium.jpg2016-12-05 05:12 199K 
[IMG]83867972-golden-silk-drapery-ft160_medium.jpg2016-12-05 05:08 148K 
[IMG]83868001-blue-silk-drapery-ft160_medium.jpg2016-12-05 05:13 180K 
[IMG]83868013-woman-dancer-sexy-beauty-plastic-ft160_medium.jpg2016-12-05 05:12 136K 
[IMG]83868017ft160_medium.jpg2016-12-05 05:08 144K 
[IMG]83868018-black-sport-boots-ft160_medium.jpg2016-12-05 05:09 129K 
[IMG]83868021-red-fear-word-on-huge-concrete-puzzles-with-sea-backgroundft160_medium.jpg2016-12-05 05:12 171K 
[IMG]83868025-woman-dancer-sexy-beauty-plastic-ft160_medium.jpg2016-12-05 05:11 129K 
[IMG]83868047ft160_medium.jpg2016-12-05 05:10 148K 
[IMG]83868056-the-ancient-city-ft160_medium.jpg2016-12-05 05:12 195K 
[IMG]83868062-sunflower-seed-ft160_medium.jpg2016-12-05 05:07 119K 
[IMG]83868070-green-silk-drapery-ft160_medium.jpg2016-12-05 05:13 157K 
[IMG]83868073ft160_medium.jpg2016-12-05 05:11 154K 
[IMG]83868078-sole-side-of-rubber-bootsft160_medium.jpg2016-12-05 05:12 132K 
[IMG]83868108ft160_medium.jpg2016-12-05 05:10 150K 
[IMG]83868109-paint-pallet-and-paintbrushft160_medium.jpg2016-12-05 05:13 144K 
[IMG]83868118-colorful-wooden-pencils-art-composition-on-white-backgroundft160_medium.jpg2016-12-05 05:14 200K 
[IMG]83868123-delicious-fresh-shrimp-ft160_medium.jpg2016-12-05 05:11 140K 
[IMG]83868140-flying-over-ipiranga-in-sao-paulo-brazil-latin-americaft160_medium.jpg2016-12-05 05:09 167K 
[IMG]83868143-businessman-standing-on-huge-3d-concrete-question-mark-cityscapeft160_medium.jpg2016-12-05 05:14 135K 
[IMG]83868152-tempus-fugit-il-tempo-passa-time-fliesft160_medium.jpg2016-12-05 05:09 157K 
[IMG]83868157-colorful-wooden-pencils-art-composition-on-white-backgroundft160_medium.jpg2016-12-05 05:13 193K 
[IMG]83868164-italy-rome-monuments-and-churches-in-the-roman-forumft160_medium.jpg2016-12-05 05:12 167K 
[IMG]83868168-quseir-qasr-amra-desert-castle-near-amman-jordanft160_medium.jpg2016-12-05 05:13 154K 
[IMG]83868171-hand-holding-scissors-ft160_medium.jpg2016-12-05 05:08 124K 
[IMG]83868175-blue-silk-drapery-ft160_medium.jpg2016-12-05 05:13 146K 
[IMG]83868178ft160_medium.jpg2016-12-05 05:09 129K 
[IMG]83868179-blue-silk-drapery-ft160_medium.jpg2016-12-05 05:09 139K 
[IMG]83868180-colorful-wooden-pencils-art-composition-on-white-backgroundft160_medium.jpg2016-12-05 05:11 224K 
[IMG]83868183ft160_medium.jpg2016-12-05 05:08 119K 
[IMG]83868187-frisches-obst-und-gemuese-in-holzkisteft160_medium.jpg2016-12-05 05:14 182K 
[IMG]83868193-flip-flops-with-towel-on-a-sandy-beachft160_medium.jpg2016-12-05 05:13 135K 
[IMG]83868198-tempus-fugit-il-tempo-passa-time-fliesft160_medium.jpg2016-12-05 05:09 179K 
[IMG]83868199-flip-flops-with-towel-on-a-sandy-beachft160_medium.jpg2016-12-05 05:13 135K 
[IMG]83868203-tabletki-w-opakowaniachft160_medium.jpg2016-12-05 05:11 146K 
[IMG]83868205ft160_medium.jpg2016-12-05 05:10 133K 
[IMG]83868214-colorful-wooden-pencils-art-composition-on-white-backgroundft160_medium.jpg2016-12-05 05:11 198K 
[IMG]83868218ft160_medium.jpg2016-12-05 05:11 135K 
[IMG]83868220-set-of-5-colors-patterns-with-flowers-andft160_medium.jpg2016-12-05 05:14 258K 
[IMG]83868222-ripe-papaya-ft160_medium.jpg2016-12-05 05:09 128K 
[IMG]83868223ft160_medium.jpg2016-12-05 05:13 132K 
[IMG]83868224-kaeseft160_medium.jpg2016-12-05 05:08 179K 
[IMG]83868228ft160_medium.jpg2016-12-05 05:09 127K 
[IMG]83868238-colorful-wooden-pencils-art-composition-on-white-backgroundft160_medium.jpg2016-12-05 05:14 186K 
[IMG]83868239-chalet-en-bois-de-vacances-en-campagneft160_medium.jpg2016-12-05 05:11 156K 
[IMG]83868250-tatuajeft160_medium.jpg2016-12-05 05:13 139K 
[IMG]83868251ft160_medium.jpg2016-12-05 05:09 126K 
[IMG]83868254-tempus-fugit-il-tempo-passa-time-fliesft160_medium.jpg2016-12-05 05:10 171K 
[IMG]83868263ft160_medium.jpg2016-12-05 05:08 126K 
[IMG]83868264-colorful-wooden-pencils-art-composition-on-white-backgroundft160_medium.jpg2016-12-05 05:12 178K 
[IMG]83868275ft160_medium.jpg2016-12-05 05:12 129K 
[IMG]83868279ft160_medium.jpg2016-12-05 05:12 132K 
[IMG]83868282-colorful-wooden-pencils-art-composition-on-white-backgroundft160_medium.jpg2016-12-05 05:14 199K 
[IMG]83868298-promenade-sur-la-plage-avec-mamanft160_medium.jpg2016-12-05 05:12 142K 
[IMG]83868302-goal-setting-with-target-objectives-and-planning-conceptft160_medium.jpg2016-12-05 05:14 167K 
[IMG]83868306-objectives-and-planning-concept-goal-settingft160_medium.jpg2016-12-05 05:09 188K 
[IMG]83868314-red-pin-ni-target-objectives-and-planning-conceptft160_medium.jpg2016-12-05 05:13 176K 
[IMG]83868317-calculate-target-and-reach-with-red-pinft160_medium.jpg2016-12-05 05:12 165K 
[IMG]83868325-set-goal-and-win-with-red-pin-business-conceptft160_medium.jpg2016-12-05 05:12 153K 
[IMG]83868334-seamless-vector-from-graduation-capsft160_medium.jpg2016-12-05 05:12 116K 
[IMG]83868339-seamless-background-of-graduation-caps-and-diplomas-patternft160_medium.jpg2016-12-05 05:09 160K 
[IMG]83868349-rice-noodle-with-chopsticks-taken-close-upft160_medium.jpg2016-12-05 05:09 177K 
[IMG]83868350-classic-chair-with-red-plaid-pillowft160_medium.jpg2016-12-05 05:09 154K 
[IMG]83868353-asian-rice-noodle-with-chicken-meat-and-chili-starft160_medium.jpg2016-12-05 05:11 219K 
[IMG]83868354-passenger-ship-on-river-rhine-in-bingenft160_medium.jpg2016-12-05 05:14 140K 
[IMG]83868356-relaxing-guy-on-a-tropical-islandft160_medium.jpg2016-12-05 05:10 145K 
[IMG]83868363ft160_medium.jpg2016-12-05 05:13 157K 
[IMG]83868369-best-fighter-ltft160_medium.jpg2016-12-05 05:10 183K 
[IMG]83868383-industrial-mechanical-fish-isolatedft160_medium.jpg2016-12-05 05:14 194K 
[IMG]83868392ft160_medium.jpg2016-12-05 05:07 140K 
[IMG]83868396ft160_medium.jpg2016-12-05 05:10 133K 
[IMG]83868397-colorful-wooden-pencils-isolated-on-white-backgroundft160_medium.jpg2016-12-05 05:08 130K 
[IMG]83868404-traktor-drewnianyft160_medium.jpg2016-12-05 05:09 138K 
[IMG]83868405ft160_medium.jpg2016-12-05 05:09 137K 
[IMG]83868407-check-mark-icon-ft160_medium.jpg2016-12-05 05:11 127K 
[IMG]83868412-colorful-wooden-pencils-isolated-on-white-backgroundft160_medium.jpg2016-12-05 05:11 172K 
[IMG]83868421ft160_medium.jpg2016-12-05 05:12 130K 
[IMG]83868422-exotic-tropical-bird-set-with-flat-design-ft160_medium.jpg2016-12-05 05:08 160K 
[IMG]83868427-football-matchft160_medium.jpg2016-12-05 05:09 121K 
[IMG]83868429-seafood-mixft160_medium.jpg2016-12-05 05:13 217K 
[IMG]83868434-cartoon-airplane-in-the-skyft160_medium.jpg2016-12-05 05:13 126K 
[IMG]83868439-cartoon-helicopter-in-the-skyft160_medium.jpg2016-12-05 05:13 134K 
[IMG]83868443-promenade-sur-la-plage-avec-mamanft160_medium.jpg2016-12-05 05:08 139K 
[IMG]83868447-colorful-wooden-pencils-isolated-on-white-backgroundft160_medium.jpg2016-12-05 05:12 150K 
[IMG]83868463-san-fernando-plaza-nueva-sevilla-espanaft160_medium.jpg2016-12-05 05:09 169K 
[IMG]83868488-colorful-of-wooden-color-pencils-isolated-on-white-backgroundft160_medium.jpg2016-12-05 05:10 163K 
[IMG]83868490-dokumente-und-dateien-thin-line-icon-setft160_medium.jpg2016-12-05 05:14 182K 
[IMG]83868493-qasr-kharana-desert-castle-in-eastern-jordanft160_medium.jpg2016-12-05 05:12 143K 
[IMG]83868495-golden-riceft160_medium.jpg2016-12-05 05:11 173K 
[IMG]83868503-football-matchft160_medium.jpg2016-12-05 05:12 128K 
[IMG]83868504ft160_medium.jpg2016-12-05 05:14 138K 
[IMG]83868506ft160_medium.jpg2016-12-05 05:08 133K 
[IMG]83868511ft160_medium.jpg2016-12-05 05:12 145K 
[IMG]83868523-daffodils-flowers-spring-bloom-in-the-gardenft160_medium.jpg2016-12-05 05:10 202K 
[IMG]83868527-san-peter-cathedralft160_medium.jpg2016-12-05 05:08 176K 
[IMG]83868548-white-balloonft160_medium.jpg2016-12-05 05:12 125K 
[IMG]83868549-colorful-of-wooden-color-pencils-isolated-on-white-backgroundft160_medium.jpg2016-12-05 05:13 157K 
[IMG]83868551-repair-of-watchesft160_medium.jpg2016-12-05 05:13 135K 
[IMG]83868560-colorful-wooden-pencils-art-compositionft160_medium.jpg2016-12-05 05:12 184K 
[IMG]83868562-phone-with-internet-of-things-iconsft160_medium.jpg2016-12-05 05:10 193K 
[IMG]83868566-aroma-bowl-with-candles-and-flowersft160_medium.jpg2016-12-05 05:12 160K 
[IMG]83868567-ornamental-backgroundft160_medium.jpg2016-12-05 05:13 176K 
[IMG]83868568-trainer-mit-sportlerin-macht-uebungenft160_medium.jpg2016-12-05 05:14 134K 
[IMG]83868587-italy-rome-view-of-the-victorian-palace-vittoriano-ft160_medium.jpg2016-12-05 05:09 165K 
[IMG]83868598-barcodeft160_medium.jpg2016-12-05 05:12 214K 
[IMG]83868599-rusty-tractorft160_medium.jpg2016-12-05 05:11 183K 
[IMG]83868600-baroque-colorful-lace-seamless-pattern-vintage-butterfly-wingsft160_medium.jpg2016-12-05 05:08 269K 
[IMG]83868605-check-mark-icon-ft160_medium.jpg2016-12-05 05:12 126K 
[IMG]83868607ft160_medium.jpg2016-12-05 05:14 147K 
[IMG]83868609-football-matchft160_medium.jpg2016-12-05 05:13 127K 
[IMG]83868616ft160_medium.jpg2016-12-05 05:13 151K 
[IMG]83868621ft160_medium.jpg2016-12-05 05:09 148K 
[IMG]83868634-qasr-kharana-desert-castle-in-eastern-jordanft160_medium.jpg2016-12-05 05:14 153K 
[IMG]83868636ft160_medium.jpg2016-12-05 05:08 143K 
[IMG]83868643-groom-kissing-his-bride-close-upft160_medium.jpg2016-12-05 05:14 155K 
[IMG]83868645-lace-seamless-pattern-with-flowersft160_medium.jpg2016-12-05 05:09 233K 
[IMG]83868647-large-bunches-of-wine-grapes-hang-from-a-vine-at-vineyardft160_medium.jpg2016-12-05 05:14 223K 
[IMG]83868650ft160_medium.jpg2016-12-05 05:08 155K 
[IMG]83868653ft160_medium.jpg2016-12-05 05:10 152K 
[IMG]83868658-love-is-euripidesft160_medium.jpg2016-12-05 05:12 193K 
[IMG]83868672-sharpener-pencil-and-color-pencils-group-blunt-red-pencilft160_medium.jpg2016-12-05 05:11 109K 
[IMG]83868676-nature-branches-full-of-fresh-green-leaves-camera-panft160_medium.jpg2016-12-05 05:13 119K 
[IMG]83868682-summer-vacation-isolated-elementsft160_medium.jpg2016-12-05 05:11 167K 
[IMG]83868684-trees-in-the-snowft160_medium.jpg2016-12-05 05:11 132K 
[IMG]83868685-yellow-car-with-reflectionft160_medium.jpg2016-12-05 05:10 135K 
[IMG]83868688-the-ship-on-the-volga-riverft160_medium.jpg2016-12-05 05:09 147K 
[IMG]83868699-graduates-celebratingft160_medium.jpg2016-12-05 05:13 167K 
[IMG]83868718-praying-mantis-on-white-backgroundft160_medium.jpg2016-12-05 05:10 112K 
[IMG]83868722ft160_medium.jpg2016-12-05 05:07 145K 
[IMG]83868725-sharpener-pencil-and-color-pencils-group-blunt-red-pencilft160_medium.jpg2016-12-05 05:13 132K 
[IMG]83868726-netzwerk-und-smart-city-line-icon-setft160_medium.jpg2016-12-05 05:14 182K 
[IMG]83868737-sharpener-pencil-and-color-pencils-group-blunt-red-pencilft160_medium.jpg2016-12-05 05:09 151K 
[IMG]83868745-wedding-couple-in-love-near-white-flowers-treesft160_medium.jpg2016-12-05 05:12 183K 
[IMG]83868752-lady-guitarist-with-a-saxophonistft160_medium.jpg2016-12-05 05:13 122K 
[IMG]83868755-valley-mushrooms-in-cappadociaft160_medium.jpg2016-12-05 05:09 185K 
[IMG]83868772-colorful-wooden-pencils-art-composition-zigzagft160_medium.jpg2016-12-05 05:14 195K 
[IMG]83868780-watermelon-heart-shape-for-your-designft160_medium.jpg2016-12-05 05:11 136K 
[IMG]83868781-rocky-shore-ft160_medium.jpg2016-12-05 05:08 119K 
[IMG]83868801-large-bunches-of-wine-grapes-hang-from-a-vine-at-vineyardft160_medium.jpg2016-12-05 05:12 215K 
[IMG]83868811-colorful-wooden-pencils-art-composition-zigzagft160_medium.jpg2016-12-05 05:10 194K 
[IMG]83868820-einbruch-diebstahlft160_medium.jpg2016-12-05 05:14 147K 
[IMG]83868824-diver-and-great-hammerhead-sharks-ft160_medium.jpg2016-12-05 05:09 148K 
[IMG]83868849-colorful-wooden-pencils-art-composition-zigzagft160_medium.jpg2016-12-05 05:11 196K 
[IMG]83868850-dark-pollution-cloudft160_medium.jpg2016-12-05 05:07 141K 
[IMG]83868852-vintage-car-isolated-on-white-backgroundft160_medium.jpg2016-12-05 05:11 170K 
[IMG]83868870-repair-of-watchesft160_medium.jpg2016-12-05 05:12 137K 
[IMG]83868873-wheelbarrowft160_medium.jpg2016-12-05 05:09 131K 
[IMG]83868875-beef-steakft160_medium.jpg2016-12-05 05:07 197K 
[IMG]83868882ft160_medium.jpg2016-12-05 05:09 150K 
[IMG]83868887-ornamental-backgroundft160_medium.jpg2016-12-05 05:07 175K 
[IMG]83868902-heating-radiatorft160_medium.jpg2016-12-05 05:11 113K 
[IMG]83868907-large-bunches-of-wine-grapes-hang-from-a-vine-at-vineyardft160_medium.jpg2016-12-05 05:14 207K 
[IMG]83868908-praying-mantis-on-white-backgroundft160_medium.jpg2016-12-05 05:11 116K 
[IMG]83868920-statues-et-masques-africainsft160_medium.jpg2016-12-05 05:14 290K 
[IMG]83868953-statues-et-masques-africainsft160_medium.jpg2016-12-05 05:12 201K 
[IMG]83868955-netzwerk-und-smart-home-line-icon-setft160_medium.jpg2016-12-05 05:14 183K 
[IMG]83868960-car-interior-with-crocodile-leather-and-orange-nappa-seatsft160_medium.jpg2016-12-05 05:08 177K 
[IMG]83868986ft160_medium.jpg2016-12-05 05:10 143K 
[IMG]83868991ft160_medium.jpg2016-12-05 05:08 151K 
[IMG]83868993-strassenschild-36-eigener-gartenft160_medium.jpg2016-12-05 05:11 179K 
[IMG]83868995-amman-city-landmarks-old-roman-citadel-hill-jordan-ft160_medium.jpg2016-12-05 05:09 165K 
[IMG]83869001-strassenschild-39-freundeft160_medium.jpg2016-12-05 05:13 179K 
[IMG]83869015-strassenschild-38-seniorenheimft160_medium.jpg2016-12-05 05:11 156K 
[IMG]83869019-strassenschild-32-hausarztft160_medium.jpg2016-12-05 05:09 196K 
[IMG]83869032-strassenschild-40-gesetzlichft160_medium.jpg2016-12-05 05:14 232K 
[IMG]83869045-panchine-in-un-parcoft160_medium.jpg2016-12-05 05:09 203K 
[IMG]83869049-repair-of-watchesft160_medium.jpg2016-12-05 05:11 134K 
[IMG]83869056-schluesselloch-mit-globus-spionage-daten-sammelnft160_medium.jpg2016-12-05 05:12 191K 
[IMG]83869066ft160_medium.jpg2016-12-05 05:11 137K 
[IMG]83869080-bluetenteppichft160_medium.jpg2016-12-05 05:07 237K 
[IMG]83869081-strassenschild-34-kooperationft160_medium.jpg2016-12-05 05:09 167K 
[IMG]83869084-nsa-spionage-abhoerskandal-daten-sammelnft160_medium.jpg2016-12-05 05:12 191K 
[IMG]83869089-strassenschild-45-rauchfreift160_medium.jpg2016-12-05 05:09 195K 
[IMG]83869095-lady-guitarist-with-a-saxophonistft160_medium.jpg2016-12-05 05:09 139K 
[IMG]83869099-dry-wineft160_medium.jpg2016-12-05 05:09 118K 
[IMG]83869100-strassenschild-45-chancenft160_medium.jpg2016-12-05 05:08 195K 
[IMG]83869101-einbruch-in-hausft160_medium.jpg2016-12-05 05:13 135K 
[IMG]83869113-strassenschild-32-qualitaetft160_medium.jpg2016-12-05 05:10 196K 
[IMG]83869115ft160_medium.jpg2016-12-05 05:14 148K 
[IMG]83869116-school-building-icon-vectorft160_medium.jpg2016-12-05 05:12 182K 
[IMG]83869118-agriculture-ft160_medium.jpg2016-12-05 05:11 136K 
[IMG]83869124-strassenschild-39-sicherheitft160_medium.jpg2016-12-05 05:09 183K 
[IMG]83869128-strassenschild-41-liebeft160_medium.jpg2016-12-05 05:09 226K 
[IMG]83869140-wurstsemmel-mit-feiner-extra-und-gurkeft160_medium.jpg2016-12-05 05:12 137K 
[IMG]83869148-verwunschener-wegft160_medium.jpg2016-12-05 05:11 210K 
[IMG]83869155-lady-guitarist-with-a-saxophonistft160_medium.jpg2016-12-05 05:10 130K 
[IMG]83869158ft160_medium.jpg2016-12-05 05:08 121K 
[IMG]83869172-ornamental-template-with-place-for-textft160_medium.jpg2016-12-05 05:13 130K 
[IMG]83869175-beef-steakft160_medium.jpg2016-12-05 05:09 187K 
[IMG]83869177ft160_medium.jpg2016-12-05 05:14 156K 
[IMG]83869180-promenade-sur-la-plage-avec-mamanft160_medium.jpg2016-12-05 05:09 129K 
[IMG]83869196-manarola-village-cinque-terre-italy-ft160_medium.jpg2016-12-05 05:13 196K 
[IMG]83869199-cactusft160_medium.jpg2016-12-05 05:10 238K 
[IMG]83869200-manarola-village-cinque-terre-italy-ft160_medium.jpg2016-12-05 05:09 165K 
[IMG]83869201-lady-guitarist-with-a-saxophonistft160_medium.jpg2016-12-05 05:11 128K 
[IMG]83869206-glass-of-water-ft160_medium.jpg2016-12-05 05:14 145K 
[IMG]83869210-glass-of-water-ft160_medium.jpg2016-12-05 05:13 148K 
[IMG]83869213-glass-of-water-ft160_medium.jpg2016-12-05 05:07 147K 
[IMG]83869215-glass-of-water-ft160_medium.jpg2016-12-05 05:11 152K 
[IMG]83869218-close-up-of-a-drink-of-a-beach-party-lifestyle-conceptft160_medium.jpg2016-12-05 05:12 141K 
[IMG]83869238-trainer-begruesst-sport-teilnehmerinft160_medium.jpg2016-12-05 05:13 124K 
[IMG]83869239-villa-in-rural-landscape-tuscany-italyft160_medium.jpg2016-12-05 05:09 151K 
[IMG]83869240-wohnungseinbruchft160_medium.jpg2016-12-05 05:09 134K 
[IMG]83869259-vintage-save-the-date-or-wedding-invitation-card-collectionft160_medium.jpg2016-12-05 05:12 172K 
[IMG]83869260-promenade-sur-la-plage-avec-mamanft160_medium.jpg2016-12-05 05:10 129K 
[IMG]83869265-seafood-mixft160_medium.jpg2016-12-05 05:09 198K 
[IMG]83869275-lonely-tree-in-a-field-ft160_medium.jpg2016-12-05 05:11 147K 
[IMG]83869280-venice-grand-canal-ft160_medium.jpg2016-12-05 05:13 164K 
[IMG]83869281-umbrella-yellow-isolatedft160_medium.jpg2016-12-05 05:07 127K 
[IMG]83869284-sea-wedding-invitation-vector-templates-ft160_medium.jpg2016-12-05 05:09 206K 
[IMG]83869291-beer-in-green-bottleft160_medium.jpg2016-12-05 05:11 121K 
[IMG]83869331-viel-glueckft160_medium.jpg2016-12-05 05:13 148K 
[IMG]83869336-cascadeft160_medium.jpg2016-12-05 05:09 209K 
[IMG]83869341-chili-in-saeckenft160_medium.jpg2016-12-05 05:13 218K 
[IMG]83869350-trees-in-the-winter-ft160_medium.jpg2016-12-05 05:12 193K 
[IMG]83869360-school-building-iconft160_medium.jpg2016-12-05 05:14 193K 
[IMG]83869379-castelvecchio-bridge-and-fortress-adige-river-veneto-italyft160_medium.jpg2016-12-05 05:09 153K 
[IMG]83869380ft160_medium.jpg2016-12-05 05:10 186K 
[IMG]83869385-pusteblumenft160_medium.jpg2016-12-05 05:10 159K 
[IMG]83869389-forklift-truck-with-boxesft160_medium.jpg2016-12-05 05:14 149K 
[IMG]83869399-phoneft160_medium.jpg2016-12-05 05:13 144K 
[IMG]83869400-hornbill-vector-epsft160_medium.jpg2016-12-05 05:11 165K 
[IMG]83869407-colonna-biancaft160_medium.jpg2016-12-05 05:07 169K 
[IMG]83869415-the-key-to-successft160_medium.jpg2016-12-05 05:10 134K 
[IMG]83869416-chili-in-saeckenft160_medium.jpg2016-12-05 05:12 219K 
[IMG]83869421-business-blue-abstract-logo-with-geometric-elementsft160_medium.jpg2016-12-05 05:08 128K 
[IMG]83869423-seamless-illustration-red-tartanft160_medium.jpg2016-12-05 05:11 152K 
[IMG]83869433-pusteblumenft160_medium.jpg2016-12-05 05:10 167K 
[IMG]83869443-watercolor-circle-hand-paint-on-white-backgroundft160_medium.jpg2016-12-05 05:09 142K 
[IMG]83869457-petites-paquerettes-blanches-dans-un-champft160_medium.jpg2016-12-05 05:14 168K 
[IMG]83869477-italy-rome-view-of-the-victorian-palace-vittoriano-ft160_medium.jpg2016-12-05 05:10 184K 
[IMG]83869485-viel-glueckft160_medium.jpg2016-12-05 05:11 127K 
[IMG]83869488-repair-of-watchesft160_medium.jpg2016-12-05 05:09 158K 
[IMG]83869495ft160_medium.jpg2016-12-05 05:12 153K 
[IMG]83869506-teamsport-beachvolleyballft160_medium.jpg2016-12-05 05:12 171K 
[IMG]83869512-panier-de-cerisesft160_medium.jpg2016-12-05 05:08 162K 
[IMG]83869523-detail-of-a-musician-plays-the-trumpet-reading-the-scoreft160_medium.jpg2016-12-05 05:09 200K 
[IMG]83869527-red-trucks-driving-on-highwayft160_medium.jpg2016-12-05 05:10 177K 
[IMG]83869528-viel-glueckft160_medium.jpg2016-12-05 05:08 129K 
[IMG]83869529-action-beim-beachvolleyballft160_medium.jpg2016-12-05 05:11 159K 
[IMG]83869535-beachvolleyball-mann-pritscht-den-ballft160_medium.jpg2016-12-05 05:10 167K 
[IMG]83869536-path-in-the-agricultural-field-ft160_medium.jpg2016-12-05 05:14 137K 
[IMG]83869537-athletic-black-man-on-black-backgroundft160_medium.jpg2016-12-05 05:07 155K 
[IMG]83869539-pin-up-girl-american-style-in-a-gardenft160_medium.jpg2016-12-05 05:09 205K 
[IMG]83869540-panier-de-cerisesft160_medium.jpg2016-12-05 05:10 143K 
[IMG]83869545-angriff-beim-beachvolleyballft160_medium.jpg2016-12-05 05:11 159K 
[IMG]83869550-woman-personal-trainer-wearing-black-sportswearft160_medium.jpg2016-12-05 05:13 130K 
[IMG]83869552-frau-baggert-den-beachvolleyballft160_medium.jpg2016-12-05 05:08 171K 
[IMG]83869562-background-with-water-transportft160_medium.jpg2016-12-05 05:11 217K 
[IMG]83869566-coffeeft160_medium.jpg2016-12-05 05:12 163K 
[IMG]83869567-italy-rome-view-of-the-victorian-palace-vittoriano-ft160_medium.jpg2016-12-05 05:08 168K 
[IMG]83869570-mann-isst-schnell-und-hektisch-seine-pizza-da-im-stressft160_medium.jpg2016-12-05 05:09 151K 
[IMG]83869573-attractive-woman-with-a-sun-hat-on-a-tropical-beach-eyes-closedft160_medium.jpg2016-12-05 05:11 140K 
[IMG]83869577-paquerettes-au-soleilft160_medium.jpg2016-12-05 05:14 186K 
[IMG]83869583-frau-baggert-den-beachvolleyballft160_medium.jpg2016-12-05 05:08 153K 
[IMG]83869585-brown-bear-ursus-arctosft160_medium.jpg2016-12-05 05:12 177K 
[IMG]83869591-brown-bear-ursus-arctosft160_medium.jpg2016-12-05 05:08 194K 
[IMG]83869594ft160_medium.jpg2016-12-05 05:11 155K 
[IMG]83869607-angriff-beim-beachvolleyballft160_medium.jpg2016-12-05 05:11 175K 
[IMG]83869614-wurstsemmel-xxlft160_medium.jpg2016-12-05 05:14 155K 
[IMG]83869625-wurstsemmel-xxlft160_medium.jpg2016-12-05 05:13 157K 
[IMG]83869626-blue-background-with-water-transportft160_medium.jpg2016-12-05 05:09 212K 
[IMG]83869627-attractive-woman-s-mouth-with-fashion-red-lips-makeupft160_medium.jpg2016-12-05 05:11 145K 
[IMG]83869631-angriff-beim-beachvolleyballft160_medium.jpg2016-12-05 05:14 133K 
[IMG]83869632-panier-de-cerisesft160_medium.jpg2016-12-05 05:10 188K 
[IMG]83869638-brown-bear-ursus-arctosft160_medium.jpg2016-12-05 05:07 195K 
[IMG]83869641-dressmaker-objectsft160_medium.jpg2016-12-05 05:13 155K 
[IMG]83869645-brown-bear-ursus-arctosft160_medium.jpg2016-12-05 05:12 194K 
[IMG]83869646-action-beim-beachvolleyballft160_medium.jpg2016-12-05 05:11 129K 
[IMG]83869653-attraktive-junge-frau-am-strandft160_medium.jpg2016-12-05 05:11 166K 
[IMG]83869659-angriff-beim-beachvolleyballft160_medium.jpg2016-12-05 05:08 138K 
[IMG]83869666-action-beim-beachvolleyballft160_medium.jpg2016-12-05 05:12 145K 
[IMG]83869674-frau-schlaegt-den-beachvolleyballft160_medium.jpg2016-12-05 05:11 125K 
[IMG]83869677-graines-de-pissenlits-sur-fond-vertft160_medium.jpg2016-12-05 05:08 156K 
[IMG]83869681-frau-schlaegt-den-beachvolleyballft160_medium.jpg2016-12-05 05:12 184K 
[IMG]83869696-yaourts-cerisesft160_medium.jpg2016-12-05 05:10 184K 
[IMG]83869698-frau-schlaegt-den-beachvolleyballft160_medium.jpg2016-12-05 05:10 182K 
[IMG]83869701-frau-schlaegt-den-beachvolleyballft160_medium.jpg2016-12-05 05:12 176K 
[IMG]83869716ft160_medium.jpg2016-12-05 05:12 162K 
[IMG]83869731-happy-girl-ironing-clothesft160_medium.jpg2016-12-05 05:08 171K 
[IMG]83869735-happy-girl-ironing-clothesft160_medium.jpg2016-12-05 05:13 187K 
[IMG]83869737-laechelnder-mann-am-strandft160_medium.jpg2016-12-05 05:12 175K 
[IMG]83869739-composition-florale-sur-voiture-de-mariageft160_medium.jpg2016-12-05 05:09 214K 
[IMG]83869741-happy-girl-ironing-clothesft160_medium.jpg2016-12-05 05:08 181K 
[IMG]83869760-yaourts-cerisesft160_medium.jpg2016-12-05 05:14 159K 
[IMG]83869764-callistemon-decorationft160_medium.jpg2016-12-05 05:12 161K 
[IMG]83869767-tatuajeft160_medium.jpg2016-12-05 05:09 141K 
[IMG]83869777-abstract-rainbow-colours-on-a-backgroundft160_medium.jpg2016-12-05 05:11 149K 
[IMG]83869786-plowed-agricultural-field-ft160_medium.jpg2016-12-05 05:11 195K 
[IMG]83869790-yaourts-cerisesft160_medium.jpg2016-12-05 05:11 139K 
[IMG]83869808-inverno-panorama-invernale-neve-nevicata-ft160_medium.jpg2016-12-05 05:09 138K 
[IMG]83869811-composition-florale-sur-voiture-de-mariageft160_medium.jpg2016-12-05 05:10 198K 
[IMG]83869812-abstract-black-and-white-dotted-ft160_medium.jpg2016-12-05 05:09 212K 
[IMG]83869814-straw-stack-ft160_medium.jpg2016-12-05 05:13 159K 
[IMG]83869825-sensual-brunette-girl-with-short-red-dressft160_medium.jpg2016-12-05 05:07 153K 
[IMG]83869831-sensual-brunette-girl-with-short-red-dressft160_medium.jpg2016-12-05 05:10 155K 
[IMG]83869844-yaourts-cerisesft160_medium.jpg2016-12-05 05:10 154K 
[IMG]83869847-abstract-binary-code-background-of-matrix-style-ft160_medium.jpg2016-12-05 05:08 201K 
[IMG]83869850-sciare-sci-sciatori-sport-invernali-ft160_medium.jpg2016-12-05 05:08 144K 
[IMG]83869859-button-mit-prozent-symbolft160_medium.jpg2016-12-05 05:13 137K 
[IMG]83869861-imaginacion-azul-ft160_medium.jpg2016-12-05 05:10 114K 
[IMG]83869870-measuring-tapeft160_medium.jpg2016-12-05 05:10 137K 
[IMG]83869876-sonnenblume-im-topf-giesskanne-ft160_medium.jpg2016-12-05 05:09 256K 
[IMG]83869879-composition-florale-sur-voiture-de-mariageft160_medium.jpg2016-12-05 05:14 215K 
[IMG]83869885-girl-with-a-basket-of-clothesft160_medium.jpg2016-12-05 05:12 195K 
[IMG]83869892-yaourts-cerisesft160_medium.jpg2016-12-05 05:08 168K 
[IMG]83869903-kathedrale-und-altstadt-von-cefalu-sizilienft160_medium.jpg2016-12-05 05:10 198K 
[IMG]83869908-top-of-view-of-glasses-of-spritz-aperitif-aperol-red-cocktailft160_medium.jpg2016-12-05 05:09 176K 
[IMG]83869909-elevage-de-moules-sur-la-plageft160_medium.jpg2016-12-05 05:12 182K 
[IMG]83869918-kathedrale-von-cefalu-sizilienft160_medium.jpg2016-12-05 05:13 191K 
[IMG]83869919-sensual-brunette-girl-with-short-red-dressft160_medium.jpg2016-12-05 05:08 153K 
[IMG]83869923-peanut-butter-and-crackersft160_medium.jpg2016-12-05 05:11 143K 
[IMG]83869931-birch-grove-in-winter-ft160_medium.jpg2016-12-05 05:09 204K 
[IMG]83869932-mittelalterliche-stadt-und-kathedrale-von-cefalu-sizilienft160_medium.jpg2016-12-05 05:10 195K 
[IMG]83869933-peanut-butter-on-round-crackerft160_medium.jpg2016-12-05 05:08 126K 
[IMG]83869941-mystischer-laubwald-ft160_medium.jpg2016-12-05 05:10 233K 
[IMG]83869947-blick-ueber-daecher-und-gassen-der-altstadt-von-cefalu-sizilienft160_medium.jpg2016-12-05 05:09 210K 
[IMG]83869948-abstract-vector-mesh-background-sphere-of-bioluminescentft160_medium.jpg2016-12-05 05:08 129K 
[IMG]83869955-small-round-crackerft160_medium.jpg2016-12-05 05:14 125K 
[IMG]83869956-sensual-brunette-girl-with-short-red-dressft160_medium.jpg2016-12-05 05:10 158K 
[IMG]83869969-that-is-the-wayft160_medium.jpg2016-12-05 05:11 159K 
[IMG]83869971-tatuajeft160_medium.jpg2016-12-05 05:10 129K 
[IMG]83869972-measuring-tapeft160_medium.jpg2016-12-05 05:11 163K 
[IMG]83869984-kreuz-auf-dem-berg-rocca-in-cefalu-sizilienft160_medium.jpg2016-12-05 05:09 166K 
[IMG]83869991-portrait-of-shocked-man-with-opened-mouthft160_medium.jpg2016-12-05 05:09 137K 
[IMG]83869995-blick-vom-berg-rocca-auf-strand-und-altstadt-cefalu-sizilienft160_medium.jpg2016-12-05 05:09 212K 
[IMG]83870000-chica-en-la-ducha-ft160_medium.jpg2016-12-05 05:14 157K 
[IMG]83870005-yellowing-tree-ft160_medium.jpg2016-12-05 05:14 208K 
[IMG]83870014-sensual-brunette-girl-with-short-red-dressft160_medium.jpg2016-12-05 05:10 135K 
[IMG]83870021-assosft160_medium.jpg2016-12-05 05:10 203K 
[IMG]83870022-fischerboote-im-alten-hafen-von-cefalu-sizilien-2-ft160_medium.jpg2016-12-05 05:09 204K 
[IMG]83870027-yaourts-cerisesft160_medium.jpg2016-12-05 05:14 161K 
[IMG]83870030-fiori-di-fico-d-india-coloratift160_medium.jpg2016-12-05 05:13 142K 
[IMG]83870047-assosft160_medium.jpg2016-12-05 05:12 179K 
[IMG]83870049-plastic-white-medical-bottleft160_medium.jpg2016-12-05 05:10 114K 
[IMG]83870059-junger-mann-geniesst-ein-stueck-salami-pizzaft160_medium.jpg2016-12-05 05:09 155K 
[IMG]83870073-assosft160_medium.jpg2016-12-05 05:13 195K 
[IMG]83870077-the-winter-road-ft160_medium.jpg2016-12-05 05:14 174K 
[IMG]83870086-abstract-geometric-pattern-background-ft160_medium.jpg2016-12-05 05:10 299K 
[IMG]83870087-nature-branches-full-of-fresh-green-leaves-camera-panft160_medium.jpg2016-12-05 05:13 153K 
[IMG]83870088-abstract-geometric-pattern-background-ft160_medium.jpg2016-12-05 05:08 367K 
[IMG]83870092-abstract-geometric-pattern-background-ft160_medium.jpg2016-12-05 05:10 279K 
[IMG]83870094-vector-coffee-stains-on-the-paper-isolated-stains-on-uniformft160_medium.jpg2016-12-05 05:14 164K 
[IMG]83870096-measuring-tapeft160_medium.jpg2016-12-05 05:11 150K 
[IMG]83870100-person-professional-firefighterft160_medium.jpg2016-12-05 05:14 132K 
[IMG]83870101-sensual-brunette-girl-with-short-red-dressft160_medium.jpg2016-12-05 05:12 139K 
[IMG]83870103-vegetables-beans-and-peasft160_medium.jpg2016-12-05 05:14 217K 
[IMG]83870115-chica-en-la-ducha-ft160_medium.jpg2016-12-05 05:09 142K 
[IMG]83870125-set-of-vector-floral-and-geometric-monogram-logos-with-capitalft160_medium.jpg2016-12-05 05:13 226K 
[IMG]83870129-yaourts-cerisesft160_medium.jpg2016-12-05 05:13 162K 
[IMG]83870133-evolution-of-lightingft160_medium.jpg2016-12-05 05:10 133K 
[IMG]83870134-port-erinft160_medium.jpg2016-12-05 05:11 141K 
[IMG]83870136-assosft160_medium.jpg2016-12-05 05:13 179K 
[IMG]83870148-vegetables-beans-and-peasft160_medium.jpg2016-12-05 05:11 211K 
[IMG]83870149-massive-sale-text-with-a-person-and-shopping-trolleyft160_medium.jpg2016-12-05 05:09 164K 
[IMG]83870150-measuring-tapeft160_medium.jpg2016-12-05 05:12 147K 
[IMG]83870155ft160_medium.jpg2016-12-05 05:09 182K 
[IMG]83870157-merry-christmasft160_medium.jpg2016-12-05 05:13 214K 
[IMG]83870163-cars-in-traffic-jam-on-highway-in-germanyft160_medium.jpg2016-12-05 05:10 166K 
[IMG]83870168-fischerboote-im-alten-hafen-von-cefalu-sizilienft160_medium.jpg2016-12-05 05:14 202K 
[IMG]83870170-beachft160_medium.jpg2016-12-05 05:08 136K 
[IMG]83870178-sonnenuntergang-strommastft160_medium.jpg2016-12-05 05:10 151K 
[IMG]83870184-junge-frau-isst-hektisch-pizza-da-wenig-zeitft160_medium.jpg2016-12-05 05:12 167K 
[IMG]83870188-american-football-typographical-vintage-grunge-style-poster-ft160_medium.jpg2016-12-05 05:14 200K 
[IMG]83870189-happy-wedding-couple-on-backqround-red-flowersft160_medium.jpg2016-12-05 05:13 193K 
[IMG]83870190-girl-on-a-skateboardft160_medium.jpg2016-12-05 05:13 158K 
[IMG]83870199-girl-on-rollersft160_medium.jpg2016-12-05 05:09 149K 
[IMG]83870203-view-on-hamburg-from-st-michael-s-church-hamburgft160_medium.jpg2016-12-05 05:12 212K 
[IMG]83870209-sensual-brunette-girl-with-short-red-dressft160_medium.jpg2016-12-05 05:09 142K 
[IMG]83870212-kid-on-a-scooterft160_medium.jpg2016-12-05 05:08 159K 
[IMG]83870213-beachft160_medium.jpg2016-12-05 05:10 165K 
[IMG]83870220-man-joggingft160_medium.jpg2016-12-05 05:13 142K 
[IMG]83870221-yaourts-cerisesft160_medium.jpg2016-12-05 05:14 163K 
[IMG]83870223-sphere-covered-with-red-silk-fabricft160_medium.jpg2016-12-05 05:13 131K 
[IMG]83870230-patient-with-a-nurse-on-walkft160_medium.jpg2016-12-05 05:08 194K 
[IMG]83870232-chica-en-la-ducha-ft160_medium.jpg2016-12-05 05:08 136K 
[IMG]83870234-cerro-torre-mountainsft160_medium.jpg2016-12-05 05:11 180K 
[IMG]83870235-hamburg-germanyft160_medium.jpg2016-12-05 05:10 134K 
[IMG]83870240-black-blank-blackboard-with-wooden-frame-and-3d-houseft160_medium.jpg2016-12-05 05:14 138K 
[IMG]83870250-two-ice-cream-on-a-stick-with-chocolate-glazeft160_medium.jpg2016-12-05 05:08 148K 
[IMG]83870257-scoops-of-ice-cream-with-chocolate-chipsft160_medium.jpg2016-12-05 05:08 142K 
[IMG]83870259-herbe-rougeft160_medium.jpg2016-12-05 05:14 177K 
[IMG]83870264-amman-city-landmarks-old-roman-citadel-hill-jordan-ft160_medium.jpg2016-12-05 05:14 154K 
[IMG]83870273-scoops-of-ice-cream-with-chocolateft160_medium.jpg2016-12-05 05:11 194K 
[IMG]83870278-cat-breed-toyger-on-white-background-ft160_medium.jpg2016-12-05 05:13 140K 
[IMG]83870280-cat-breed-toyger-eating-dry-food-from-a-bowl-isolated-on-whiteft160_medium.jpg2016-12-05 05:14 148K 
[IMG]83870282-sphere-covered-with-golden-shiny-fabricft160_medium.jpg2016-12-05 05:13 147K 
[IMG]83870285-port-of-hamburg-on-the-river-elbe-the-largest-port-in-germanyft160_medium.jpg2016-12-05 05:08 172K 
[IMG]83870292-caffe-colazioneft160_medium.jpg2016-12-05 05:08 173K 
[IMG]83870301-sliced-bread-with-sunflower-seeds-and-ears-of-wheatft160_medium.jpg2016-12-05 05:12 202K 
[IMG]83870304-abyssinian-kitten-ft160_medium.jpg2016-12-05 05:08 166K 
[IMG]83870310-sandwich-with-fried-eggs-in-the-shape-of-a-heartft160_medium.jpg2016-12-05 05:12 180K 
[IMG]83870311-sandwich-with-fried-eggs-in-the-shape-of-a-heartft160_medium.jpg2016-12-05 05:09 162K 
[IMG]83870312-sandwich-with-fried-eggs-in-the-shape-of-a-heartft160_medium.jpg2016-12-05 05:14 175K 
[IMG]83870314-sandwich-with-fried-eggs-in-the-shape-of-a-heartft160_medium.jpg2016-12-05 05:08 174K 
[IMG]83870317-vegetables-beans-and-peasft160_medium.jpg2016-12-05 05:10 196K 
[IMG]83870318-port-of-hamburg-on-the-river-elbe-the-largest-port-in-germanyft160_medium.jpg2016-12-05 05:13 147K 
[IMG]83870322-shippingft160_medium.jpg2016-12-05 05:14 135K 
[IMG]83870327-fitz-royft160_medium.jpg2016-12-05 05:10 137K 
[IMG]83870334-glacier-in-argentinaft160_medium.jpg2016-12-05 05:14 165K 
[IMG]83870336-vegetables-beans-and-peasft160_medium.jpg2016-12-05 05:14 216K 
[IMG]83870339-man-with-flowers-on-the-head-blue-contourft160_medium.jpg2016-12-05 05:11 163K 
[IMG]83870351-glacier-in-argentinaft160_medium.jpg2016-12-05 05:11 182K 
[IMG]83870355-the-winter-road-ft160_medium.jpg2016-12-05 05:07 207K 
[IMG]83870356-vegetables-beans-and-peasft160_medium.jpg2016-12-05 05:09 211K 
[IMG]83870357-port-of-hamburg-on-the-river-elbe-the-largest-port-in-germanyft160_medium.jpg2016-12-05 05:12 147K 
[IMG]83870361-mariage-couple-qui-s-embrasseft160_medium.jpg2016-12-05 05:10 163K 
[IMG]83870363-vache-de-race-vosgienneft160_medium.jpg2016-12-05 05:09 166K 
[IMG]83870367-trachten-designft160_medium.jpg2016-12-05 05:13 148K 
[IMG]83870372-sensual-brunette-girl-with-short-red-dressft160_medium.jpg2016-12-05 05:13 142K 
[IMG]83870378-glacier-in-argentinaft160_medium.jpg2016-12-05 05:11 182K 
[IMG]83870379-statues-de-templeft160_medium.jpg2016-12-05 05:12 175K 
[IMG]83870383-mariage-couple-qui-s-embrasseft160_medium.jpg2016-12-05 05:08 150K 
[IMG]83870392-spritz-aperitif-aperol-cocktail-with-orange-slices-and-ice-cubesft160_medium.jpg2016-12-05 05:11 176K 
[IMG]83870400-vache-de-race-vosgienneft160_medium.jpg2016-12-05 05:10 172K 
[IMG]83870404-mojito-with-mint-lime-and-kumquatft160_medium.jpg2016-12-05 05:14 164K 
[IMG]83870405-glacier-in-argentinaft160_medium.jpg2016-12-05 05:11 185K 
[IMG]83870407-colored-outline-various-awards-symbols-icons-collection-ft160_medium.jpg2016-12-05 05:14 156K 
[IMG]83870410-sensual-brunette-girl-with-short-red-dressft160_medium.jpg2016-12-05 05:13 141K 
[IMG]83870415-chabotte-du-diois-ft160_medium.jpg2016-12-05 05:13 188K 
[IMG]83870416-set-of-four-square-icons-with-cameraft160_medium.jpg2016-12-05 05:10 167K 
[IMG]83870417-jaegerstandft160_medium.jpg2016-12-05 05:09 179K 
[IMG]83870418-brown-horse-on-meadowft160_medium.jpg2016-12-05 05:09 154K 
[IMG]83870420-tree-fores-park-icon-vectorft160_medium.jpg2016-12-05 05:09 180K 
[IMG]83870425-mariage-coupleft160_medium.jpg2016-12-05 05:11 186K 
[IMG]83870443-luxury-designft160_medium.jpg2016-12-05 05:13 175K 
[IMG]83870448-glacier-in-argentinaft160_medium.jpg2016-12-05 05:13 193K 
[IMG]83870454-vegetables-beans-and-peasft160_medium.jpg2016-12-05 05:08 209K 
[IMG]83870466-glacier-in-argentinaft160_medium.jpg2016-12-05 05:08 183K 
[IMG]83870467-mariage-coupleft160_medium.jpg2016-12-05 05:11 168K 
[IMG]83870471-led-par-professional-stage-lighting-projector-dark-contour-illusft160_medium.jpg2016-12-05 05:11 213K 
[IMG]83870476-luxury-designft160_medium.jpg2016-12-05 05:13 177K 
[IMG]83870487-figuras-con-plantas-ft160_medium.jpg2016-12-05 05:08 191K 
[IMG]83870494-glacier-in-argentinaft160_medium.jpg2016-12-05 05:14 171K 
[IMG]83870497-man-in-blue-gloves-show-ok-sign-ft160_medium.jpg2016-12-05 05:08 137K 
[IMG]83870500-cook-and-fried-meat-in-lunch-counter-at-public-catering-restauraft160_medium.jpg2016-12-05 05:08 236K 
[IMG]83870504ft160_medium.jpg2016-12-05 05:11 205K 
[IMG]83870507-close-up-of-yellow-silk-cloth-texture-ft160_medium.jpg2016-12-05 05:11 146K 
[IMG]83870508-female-hands-hand-massageft160_medium.jpg2016-12-05 05:08 128K 
[IMG]83870515-female-hands-hand-massageft160_medium.jpg2016-12-05 05:09 134K 
[IMG]83870516-professional-concert-tour-array-subwoofer-speakers-colored-flatft160_medium.jpg2016-12-05 05:12 174K 
[IMG]83870518-sensual-brunette-girl-with-short-red-dressft160_medium.jpg2016-12-05 05:08 141K 
[IMG]83870519-luxury-designft160_medium.jpg2016-12-05 05:13 191K 
[IMG]83870523-blue-silk-cloth-texture-close-up-ft160_medium.jpg2016-12-05 05:07 182K 
[IMG]83870525-professional-concert-tour-array-subwoofer-speakers-dark-contourft160_medium.jpg2016-12-05 05:12 213K 
[IMG]83870530-colored-flat-style-tuba-music-instrument-vector-illustration-ft160_medium.jpg2016-12-05 05:13 143K 
[IMG]83870538-greece-coastft160_medium.jpg2016-12-05 05:13 147K 
[IMG]83870540-vegetables-beans-and-peasft160_medium.jpg2016-12-05 05:09 203K 
[IMG]83870541-new-construction-ft160_medium.jpg2016-12-05 05:11 173K 
[IMG]83870545-boy-in-a-mountain-skiing-helmet-and-points-is-represented-on-theft160_medium.jpg2016-12-05 05:13 192K 
[IMG]83870553-young-ski-racer-during-a-slalom-competitionft160_medium.jpg2016-12-05 05:13 126K 
[IMG]83870555-timelapse-cloudscapeft160_medium.jpg2016-12-05 05:14 130K 
[IMG]83870565-shining-hexagonft160_medium.jpg2016-12-05 05:08 151K 
[IMG]83870575-sensual-brunette-girl-with-short-red-dressft160_medium.jpg2016-12-05 05:11 146K 
[IMG]83870576-amman-city-landmarks-old-roman-citadel-hill-jordan-ft160_medium.jpg2016-12-05 05:11 156K 
[IMG]83870586-greece-coastft160_medium.jpg2016-12-05 05:11 158K 
[IMG]83870589-vatican-city-rome-italyft160_medium.jpg2016-12-05 05:11 143K 
[IMG]83870590-taureauft160_medium.jpg2016-12-05 05:13 145K 
[IMG]83870605-rainbow-hexagonft160_medium.jpg2016-12-05 05:10 142K 
[IMG]83870614-red-no-trespassing-sign-on-fenceft160_medium.jpg2016-12-05 05:14 207K 
[IMG]83870625-empty-children-s-playgroundft160_medium.jpg2016-12-05 05:12 218K 
[IMG]83870629-mariage-coupleft160_medium.jpg2016-12-05 05:07 196K 
[IMG]83870630-colorful-hexagonft160_medium.jpg2016-12-05 05:10 166K 
[IMG]83870633-shippingft160_medium.jpg2016-12-05 05:11 134K 
[IMG]83870634-landwirtschaft-bauer-matthias-buehnerft160_medium.jpg2016-12-05 05:11 167K 
[IMG]83870645-elevage-de-moules-sur-la-plageft160_medium.jpg2016-12-05 05:11 162K 
[IMG]83870646-hand-in-glove-holding-screwdriver-ft160_medium.jpg2016-12-05 05:08 121K 
[IMG]83870656-sensual-brunette-girl-with-short-red-dressft160_medium.jpg2016-12-05 05:09 148K 
[IMG]83870660-businessman-using-modern-mobile-phoneft160_medium.jpg2016-12-05 05:12 138K 
[IMG]83870666-vegetables-beans-and-peasft160_medium.jpg2016-12-05 05:14 200K 
[IMG]83870670-businessman-using-modern-mobile-phoneft160_medium.jpg2016-12-05 05:13 139K 
[IMG]83870673-greece-coastft160_medium.jpg2016-12-05 05:13 145K 
[IMG]83870674-vache-de-race-aubracft160_medium.jpg2016-12-05 05:09 163K 
[IMG]83870679-sunrise-over-planet-earth-in-spaceft160_medium.jpg2016-12-05 05:09 129K 
[IMG]83870683-raw-salmon-fillet-on-plate-ft160_medium.jpg2016-12-05 05:11 144K 
[IMG]83870684-sunrise-over-planet-earth-in-spaceft160_medium.jpg2016-12-05 05:11 125K 
[IMG]83870694-worker-hand-glove-clenching-fist-ft160_medium.jpg2016-12-05 05:08 135K 
[IMG]83870697-sensual-brunette-girl-with-short-red-dressft160_medium.jpg2016-12-05 05:11 142K 
[IMG]83870703-greece-coastft160_medium.jpg2016-12-05 05:13 147K 
[IMG]83870706-panier-de-fraisesft160_medium.jpg2016-12-05 05:08 205K 
[IMG]83870711-modern-digital-tech-device-collectionft160_medium.jpg2016-12-05 05:12 178K 
[IMG]83870715-caffe-breakfastft160_medium.jpg2016-12-05 05:08 179K 
[IMG]83870716-details-of-air-conditioning-in-modern-carft160_medium.jpg2016-12-05 05:12 137K 
[IMG]83870718-blue-silk-cloth-texture-closeup-ft160_medium.jpg2016-12-05 05:09 161K 
[IMG]83870723-modern-digital-computerft160_medium.jpg2016-12-05 05:12 146K 
[IMG]83870726-candied-roasted-peanuts-seeds-in-hand-ft160_medium.jpg2016-12-05 05:08 137K 
[IMG]83870728-greece-resortft160_medium.jpg2016-12-05 05:13 158K 
[IMG]83870730-new-construction-ft160_medium.jpg2016-12-05 05:13 171K 
[IMG]83870732-illustration-of-an-envelope-full-of-famous-monumentft160_medium.jpg2016-12-05 05:10 166K 
[IMG]83870736-close-up-of-golden-silk-cloth-texture-ft160_medium.jpg2016-12-05 05:14 175K 
[IMG]83870740-front-and-back-of-boots-ft160_medium.jpg2016-12-05 05:14 132K 
[IMG]83870741-wurstsemmelft160_medium.jpg2016-12-05 05:10 146K 
[IMG]83870744-new-construction-ft160_medium.jpg2016-12-05 05:08 177K 
[IMG]83870746-workplace-with-tech-deviceft160_medium.jpg2016-12-05 05:12 159K 
[IMG]83870753-greece-sunsetft160_medium.jpg2016-12-05 05:13 139K 
[IMG]83870756-green-wind-turbines-generate-energy-ft160_medium.jpg2016-12-05 05:11 156K 
[IMG]83870759-soft-folds-of-deep-blue-silk-cloth-texture-ft160_medium.jpg2016-12-05 05:14 162K 
[IMG]83870764-close-up-of-champagne-bottle-ft160_medium.jpg2016-12-05 05:08 124K 
[IMG]83870767-sunrise-over-planet-earth-in-spaceft160_medium.jpg2016-12-05 05:10 138K 
[IMG]83870769-meteorite-impact-on-planet-earth-in-spaceft160_medium.jpg2016-12-05 05:10 124K 
[IMG]83870772-workplace-with-tech-deviceft160_medium.jpg2016-12-05 05:07 123K 
[IMG]83870775-workplace-with-tech-deviceft160_medium.jpg2016-12-05 05:12 144K 
[IMG]83870777-monuments-of-the-world-on-a-tactile-tabletft160_medium.jpg2016-12-05 05:12 144K 
[IMG]83870784-the-sun-sets-on-wind-turbines-generate-energy-ft160_medium.jpg2016-12-05 05:14 118K 
[IMG]83870786-black-shoe-sole-and-front-view-ft160_medium.jpg2016-12-05 05:11 127K 
[IMG]83870787-hike-in-patagoniaft160_medium.jpg2016-12-05 05:13 194K 
[IMG]83870793-details-of-air-conditioning-in-modern-carft160_medium.jpg2016-12-05 05:14 127K 
[IMG]83870795-ardoise-rentree-des-classesft160_medium.jpg2016-12-05 05:13 152K 
[IMG]83870800-pasta-tagliatelle-with-green-peas-and-ham-ft160_medium.jpg2016-12-05 05:11 184K 
[IMG]83870807-vegetables-beans-and-peasft160_medium.jpg2016-12-05 05:12 200K 
[IMG]83870811-dahlienft160_medium.jpg2016-12-05 05:08 255K 
[IMG]83870817-spring-and-easter-background-with-spring-flowersft160_medium.jpg2016-12-05 05:11 228K 
[IMG]83870819-breakwater-cubesft160_medium.jpg2016-12-05 05:11 149K 
[IMG]83870830-sensual-brunette-girl-with-short-red-dressft160_medium.jpg2016-12-05 05:12 152K 
[IMG]83870839-smiling-welder-in-glasses-and-blue-helmet-ft160_medium.jpg2016-12-05 05:09 124K 
[IMG]83870840-newlyweds-at-they-wedding-dayft160_medium.jpg2016-12-05 05:12 160K 
[IMG]83870845-venedig-ft160_medium.jpg2016-12-05 05:07 207K 
[IMG]83870847-panier-de-fraisesft160_medium.jpg2016-12-05 05:09 213K 
[IMG]83870851-spring-and-easter-background-with-spring-flowersft160_medium.jpg2016-12-05 05:11 255K 
[IMG]83870855-hiking-in-the-mountainsft160_medium.jpg2016-12-05 05:10 146K 
[IMG]83870861-hand-in-glove-holds-screwdriver-ft160_medium.jpg2016-12-05 05:09 107K 
[IMG]83870862-rocky-seascape-of-crimea-ukraineft160_medium.jpg2016-12-05 05:09 192K 
[IMG]83870870-rocky-seascape-of-crimea-ukraineft160_medium.jpg2016-12-05 05:10 176K 
[IMG]83870871-strassenbahn-in-laxeyft160_medium.jpg2016-12-05 05:13 175K 
[IMG]83870876-hand-in-glove-with-blue-screwdriver-ft160_medium.jpg2016-12-05 05:14 114K 
[IMG]83870877-downtown-of-miami-florida-usaft160_medium.jpg2016-12-05 05:14 138K 
[IMG]83870878-hiking-in-the-mountainsft160_medium.jpg2016-12-05 05:10 177K 
[IMG]83870881-meteoraft160_medium.jpg2016-12-05 05:12 204K 
[IMG]83870886-hand-in-glove-with-screwdriver-ft160_medium.jpg2016-12-05 05:11 117K 
[IMG]83870892-fleurs-sauvages-rosesft160_medium.jpg2016-12-05 05:12 180K 
[IMG]83870895-construction-of-the-new-house-ft160_medium.jpg2016-12-05 05:12 182K 
[IMG]83870898-scrambled-eggs-with-fresh-vegetablesft160_medium.jpg2016-12-05 05:09 207K 
[IMG]83870907-adventure-climbing-high-wire-park-people-on-course-in-mountainft160_medium.jpg2016-12-05 05:10 258K 
[IMG]83870908-geometric-seamless-pattern-ft160_medium.jpg2016-12-05 05:12 352K 
[IMG]83870909-n-vino-veritasft160_medium.jpg2016-12-05 05:11 159K 
[IMG]83870912-fleur-violetteft160_medium.jpg2016-12-05 05:12 154K 
[IMG]83870922-n-vino-veritasft160_medium.jpg2016-12-05 05:10 154K 
[IMG]83870928-knospe-einer-mohnblumeft160_medium.jpg2016-12-05 05:09 143K 
[IMG]83870930-patagonia-landscapesft160_medium.jpg2016-12-05 05:13 153K 
[IMG]83870931-tea-plantation-in-munnar-indiaft160_medium.jpg2016-12-05 05:12 157K 
[IMG]83870933-fiore-di-mandarinoft160_medium.jpg2016-12-05 05:13 148K 
[IMG]83870935-fried-eggs-with-bacon-and-beansft160_medium.jpg2016-12-05 05:11 185K 
[IMG]83870936-fleur-bleueft160_medium.jpg2016-12-05 05:11 154K 
[IMG]83870937-vegetables-beans-and-peasft160_medium.jpg2016-12-05 05:10 198K 
[IMG]83870939-santorini-view-over-oia-the-famous-white-cityft160_medium.jpg2016-12-05 05:13 189K 
[IMG]83870943-amman-city-landmarks-old-roman-citadel-hill-jordan-ft160_medium.jpg2016-12-05 05:11 153K 
[IMG]83870946-anemoneft160_medium.jpg2016-12-05 05:08 128K 
[IMG]83870951-frame-with-floral-backgroundft160_medium.jpg2016-12-05 05:09 172K 
[IMG]83870955-vegetables-beans-and-peasft160_medium.jpg2016-12-05 05:14 188K 
[IMG]83870966-mortgage-text-on-blackboard-with-3d-houseft160_medium.jpg2016-12-05 05:12 143K 
[IMG]83870967-old-grunge-padlocks-on-rusty-metal-panel-toned-imageft160_medium.jpg2016-12-05 05:09 156K 
[IMG]83870971-fleur-rose-ft160_medium.jpg2016-12-05 05:11 151K 
[IMG]83870980-blick-auf-hafen-und-malerische-altstadt-von-cefalu-sizilienft160_medium.jpg2016-12-05 05:11 164K 
[IMG]83870984-wedding-couple-walkingft160_medium.jpg2016-12-05 05:13 153K 
[IMG]83870989-shippingft160_medium.jpg2016-12-05 05:12 145K 
[IMG]83870995-tropical-beachft160_medium.jpg2016-12-05 05:08 167K 
[IMG]83871004-amman-city-landmarks-old-roman-citadel-hill-jordan-ft160_medium.jpg2016-12-05 05:13 154K 
[IMG]83871010-soggiorno-con-aria-condizionataft160_medium.jpg2016-12-05 05:09 149K 
[IMG]83871013-waterhouse-in-greeceft160_medium.jpg2016-12-05 05:12 164K 
[IMG]83871017-wood-texture-with-natural-patternft160_medium.jpg2016-12-05 05:10 149K 
[IMG]83871024-scrambled-eggs-with-fresh-vegetablesft160_medium.jpg2016-12-05 05:14 220K 
[IMG]83871038-trabajando-en-los-muellesft160_medium.jpg2016-12-05 05:13 171K 
[IMG]83871053-hen-s-eggs-in-wooden-bowlft160_medium.jpg2016-12-05 05:12 145K 
[IMG]83871057-old-grunge-padlocks-on-rusty-metal-panel-toned-imageft160_medium.jpg2016-12-05 05:10 143K 
[IMG]83871068-old-grunge-padlocks-on-rusty-metal-panel-toned-imageft160_medium.jpg2016-12-05 05:09 151K 
[IMG]83871071-wedding-couple-close-up-on-the-windy-weather-embrace-near-the-laft160_medium.jpg2016-12-05 05:13 173K 
[IMG]83871081-old-grunge-padlocks-on-rusty-metal-panel-toned-imageft160_medium.jpg2016-12-05 05:09 143K 
[IMG]83871082-tas-de-boisft160_medium.jpg2016-12-05 05:14 188K 
[IMG]83871085-set-of-greeting-cardft160_medium.jpg2016-12-05 05:10 148K 
[IMG]83871088-fishing-netsft160_medium.jpg2016-12-05 05:14 203K 
[IMG]83871093-email-letter-phone-mobile-setft160_medium.jpg2016-12-05 05:07 126K 
[IMG]83871101-button-with-usa-flagft160_medium.jpg2016-12-05 05:11 149K 
[IMG]83871103-zierlauch-kugellauch-allium-aflatunense-weiss-weiss-ft160_medium.jpg2016-12-05 05:11 201K 
[IMG]83871107-winter-landscape-in-the-forestft160_medium.jpg2016-12-05 05:14 149K 
[IMG]83871114-modern-digital-tech-device-collectionft160_medium.jpg2016-12-05 05:10 125K 
[IMG]83871115-old-jetty-on-poso-lake-at-dusk-sulawesi-indonesiaft160_medium.jpg2016-12-05 05:12 160K 
[IMG]83871117-modern-digital-tech-device-collectionft160_medium.jpg2016-12-05 05:09 162K 
[IMG]83871120-modern-digital-tech-device-collectionft160_medium.jpg2016-12-05 05:09 111K 
[IMG]83871121-modern-digital-tech-device-collectionft160_medium.jpg2016-12-05 05:11 114K 
[IMG]83871128-fresh-limesft160_medium.jpg2016-12-05 05:14 151K 
[IMG]83871136-young-corn-ft160_medium.jpg2016-12-05 05:12 258K 
[IMG]83871139-modern-digital-tech-device-collectionft160_medium.jpg2016-12-05 05:13 146K 
[IMG]83871144-the-winter-road-through-winter-field-with-forest-on-a-horizonft160_medium.jpg2016-12-05 05:13 206K 
[IMG]83871148-young-woman-eating-a-delicious-chocolateft160_medium.jpg2016-12-05 05:10 143K 
[IMG]83871152-newly-plowed-field-on-a-background-cloudy-skyft160_medium.jpg2016-12-05 05:12 139K 
[IMG]83871157-winter-park-in-snowft160_medium.jpg2016-12-05 05:13 157K 
[IMG]83871167-set-of-wolfsft160_medium.jpg2016-12-05 05:14 179K 
[IMG]83871176-young-woman-eating-a-delicious-chocolateft160_medium.jpg2016-12-05 05:08 153K 
[IMG]83871180-abstract-seamless-pattern-geometrical-motifs-bright-colorsft160_medium.jpg2016-12-05 05:11 299K 
[IMG]83871185-the-winter-road-through-winter-field-with-forest-on-a-horizonft160_medium.jpg2016-12-05 05:10 169K 
[IMG]83871196-girl-with-hair-dryerft160_medium.jpg2016-12-05 05:12 165K 
[IMG]83871200-zierlauch-kugellauch-allium-aflatunense-weiss-weissft160_medium.jpg2016-12-05 05:12 195K 
[IMG]83871209-n-vino-veritasft160_medium.jpg2016-12-05 05:08 151K 
[IMG]83871212-red-and-pink-peoniesft160_medium.jpg2016-12-05 05:11 186K 
[IMG]83871219-citrus-lime-fruitft160_medium.jpg2016-12-05 05:08 146K 
[IMG]83871230-green-grass-and-spring-flowers-under-blue-skyft160_medium.jpg2016-12-05 05:09 166K 
[IMG]83871232-american-football-typographical-vintage-grunge-style-poster-ft160_medium.jpg2016-12-05 05:09 234K 
[IMG]83871233-forest-and-river-montseny-natural-park-spainft160_medium.jpg2016-12-05 05:10 200K 
[IMG]83871239-brick-wallft160_medium.jpg2016-12-05 05:11 169K 
[IMG]83871240-small-tangerines-tree-on-white-backgroundft160_medium.jpg2016-12-05 05:14 173K 
[IMG]83871245-red-cool-cocktail-with-oranges-soda-raspberry-syrup-mint-ft160_medium.jpg2016-12-05 05:13 160K 
[IMG]83871249-mace-justice-and-white-backgroundft160_medium.jpg2016-12-05 05:09 112K 
[IMG]83871250-red-cool-cocktail-with-oranges-soda-raspberry-syrup-mint-ft160_medium.jpg2016-12-05 05:10 200K 
[IMG]83871251-knospe-einer-mohnblumeft160_medium.jpg2016-12-05 05:10 150K 
[IMG]83871257-red-cool-cocktail-with-oranges-soda-raspberry-syrup-mint-ft160_medium.jpg2016-12-05 05:07 180K 
[IMG]83871261-futuristic-corridor-interiorft160_medium.jpg2016-12-05 05:13 146K 
[IMG]83871266-lemonade-with-orange-soda-and-mint-on-white-wooden-tableft160_medium.jpg2016-12-05 05:08 182K 
[IMG]83871268-lush-green-grass-with-blue-sky-backgroundft160_medium.jpg2016-12-05 05:11 136K 
[IMG]83871271-lemonade-with-orange-soda-and-mint-on-white-wooden-tableft160_medium.jpg2016-12-05 05:09 216K 
[IMG]83871279-american-football-typographical-vintage-grunge-style-poster-ft160_medium.jpg2016-12-05 05:13 220K 
[IMG]83871294-bunch-of-tulip-flowers-and-daffodils-in-glass-vase-isolated-onft160_medium.jpg2016-12-05 05:09 143K 
[IMG]83871297-road-conesft160_medium.jpg2016-12-05 05:11 153K 
[IMG]83871299-ufo-and-mountainft160_medium.jpg2016-12-05 05:13 153K 
[IMG]83871302-futuristic-corridor-interiorft160_medium.jpg2016-12-05 05:11 156K 
[IMG]83871306-red-cool-lemonade-with-oranges-soda-raspberry-syrup-mintft160_medium.jpg2016-12-05 05:12 201K 
[IMG]83871307-agriculture-ft160_medium.jpg2016-12-05 05:08 158K 
[IMG]83871309-futuristic-corridor-interiorft160_medium.jpg2016-12-05 05:11 144K 
[IMG]83871311-flying-up-passenger-airplane-isolated-over-blue-sky-backgroundft160_medium.jpg2016-12-05 05:08 122K 
[IMG]83871313-ufo-concept-and-skyft160_medium.jpg2016-12-05 05:12 138K 
[IMG]83871314-yaourts-fraisesft160_medium.jpg2016-12-05 05:11 182K 
[IMG]83871318-freudestrahlendes-maedchen-hat-spass-im-sommerft160_medium.jpg2016-12-05 05:14 115K 
[IMG]83871319-sunflower-oilft160_medium.jpg2016-12-05 05:08 150K 
[IMG]83871333-red-cool-cocktail-with-oranges-soda-raspberry-syrup-mintft160_medium.jpg2016-12-05 05:11 182K 
[IMG]83871335-pool-balls-on-snooker-tableft160_medium.jpg2016-12-05 05:13 147K 
[IMG]83871337-red-cool-lemonade-with-oranges-soda-raspberry-syrup-mint-ft160_medium.jpg2016-12-05 05:12 191K 
[IMG]83871349-usa-flag-as-a-fish-with-bubblesft160_medium.jpg2016-12-05 05:13 169K 
[IMG]83871351-shoppingft160_medium.jpg2016-12-05 05:10 125K 
[IMG]83871362-young-woman-on-the-bedft160_medium.jpg2016-12-05 05:12 141K 
[IMG]83871368-gluecklich-lachendes-maedchen-im-sommerlichtft160_medium.jpg2016-12-05 05:11 161K 
[IMG]83871376-umbrella-red-isolatedft160_medium.jpg2016-12-05 05:12 127K 
[IMG]83871377-boy-pirate-cartoon-ft160_medium.jpg2016-12-05 05:14 142K 
[IMG]83871378-ratissage-femmeft160_medium.jpg2016-12-05 05:13 180K 
[IMG]83871379-green-grass-lawn-spring-flowers-isolated-on-white-floral-naturft160_medium.jpg2016-12-05 05:09 186K 
[IMG]83871388-farm-animals-in-the-gardenft160_medium.jpg2016-12-05 05:12 179K 
[IMG]83871392-rosa-lilien-aufgebluehtft160_medium.jpg2016-12-05 05:14 177K 
[IMG]83871395-boy-tennis-player-cartoonft160_medium.jpg2016-12-05 05:12 164K 
[IMG]83871398-finishing-metal-working-on-high-precision-grinding-machineft160_medium.jpg2016-12-05 05:11 195K 
[IMG]83871408-summer-calligraphic-grunge-design-ft160_medium.jpg2016-12-05 05:14 159K 
[IMG]83871415-contact-web-and-internet-icons-setft160_medium.jpg2016-12-05 05:11 127K 
[IMG]83871443-passport-cashft160_medium.jpg2016-12-05 05:10 166K 
[IMG]83871445-field-with-cereals-ft160_medium.jpg2016-12-05 05:10 153K 
[IMG]83871452-junges-paerchen-im-warmen-sommerlichtft160_medium.jpg2016-12-05 05:14 164K 
[IMG]83871461-the-portrait-of-bergamasco-shepherd-dogft160_medium.jpg2016-12-05 05:09 182K 
[IMG]83871462-young-woman-running-in-the-cityft160_medium.jpg2016-12-05 05:11 186K 
[IMG]83871465-the-portrait-of-miniature-bull-terrierft160_medium.jpg2016-12-05 05:08 168K 
[IMG]83871467-fresh-tulips-arranged-on-old-wooden-background-ft160_medium.jpg2016-12-05 05:11 181K 
[IMG]83871477-lime-and-slicesft160_medium.jpg2016-12-05 05:11 152K 
[IMG]83871486-hand-lawn-mower-close-upft160_medium.jpg2016-12-05 05:13 218K 
[IMG]83871490-field-with-cereals-ft160_medium.jpg2016-12-05 05:14 162K 
[IMG]83871505-tulip-flowers-isolatedft160_medium.jpg2016-12-05 05:12 119K 
[IMG]83871506-5-sterne-hotelft160_medium.jpg2016-12-05 05:12 152K 
[IMG]83871513-young-woman-wearing-headphones-and-holding-water-bottle-ft160_medium.jpg2016-12-05 05:08 173K 
[IMG]83871519-old-books-blank-paper-flowers-of-wild-roses-in-vintage-style-ft160_medium.jpg2016-12-05 05:09 182K 
[IMG]83871523-the-road-to-a-field-ft160_medium.jpg2016-12-05 05:12 158K 
[IMG]83871539-horse-on-a-summer-pastureft160_medium.jpg2016-12-05 05:12 193K 
[IMG]83871569-horse-on-a-summer-pastureft160_medium.jpg2016-12-05 05:11 225K 
[IMG]83871573-aerial-view-on-the-tulip-fields-in-holland-netherlandsft160_medium.jpg2016-12-05 05:13 183K 
[IMG]83871577-aerial-view-on-the-tulip-fields-in-holland-netherlandsft160_medium.jpg2016-12-05 05:12 174K 
[IMG]83871584-mobile-con-specchio-rottoft160_medium.jpg2016-12-05 05:09 149K 
[IMG]83871587-aerial-view-on-the-tulip-fields-in-holland-netherlandsft160_medium.jpg2016-12-05 05:09 163K 
[IMG]83871601-sheep-in-thailandft160_medium.jpg2016-12-05 05:07 160K 
[IMG]83871620-car-interiorft160_medium.jpg2016-12-05 05:13 146K 
[IMG]83871622--tomatoes-ft160_medium.jpg2016-12-05 05:14 214K 
[IMG]83871628-the-portrait-of-serbian-hound-on-the-green-grass-lawnft160_medium.jpg2016-12-05 05:13 181K 
[IMG]83871633-fitness-girl-having-a-break-ft160_medium.jpg2016-12-05 05:11 175K 
[IMG]83871639-abandoned-hotel-interior-with-couchft160_medium.jpg2016-12-05 05:14 197K 
[IMG]83871645-radio-antennasft160_medium.jpg2016-12-05 05:12 143K 
[IMG]83871652-rotes-wartehaeuschen-ft160_medium.jpg2016-12-05 05:08 189K 
[IMG]83871668-video-media-player-for-web-with-we-can-help-you-wordsft160_medium.jpg2016-12-05 05:12 143K 
[IMG]83871669-bride-on-the-windy-weather-near-the-lakeft160_medium.jpg2016-12-05 05:09 148K 
[IMG]83871678-schoene-frau-im-fruehling-neben-buehendem-baumft160_medium.jpg2016-12-05 05:13 195K 
[IMG]83871685-detail-of-old-irish-wolfhound-dogft160_medium.jpg2016-12-05 05:12 186K 
[IMG]83871695-sheep-in-thailandft160_medium.jpg2016-12-05 05:08 192K 
[IMG]83871701-ardoise-rentree-des-classesft160_medium.jpg2016-12-05 05:11 156K 
[IMG]83871714-video-media-player-for-web-with-focus-on-results-wordsft160_medium.jpg2016-12-05 05:08 145K 
[IMG]83871730-opening-soon-blackboard-signft160_medium.jpg2016-12-05 05:13 165K 
[IMG]83871756-rokn-od-din-dome-in-yazdft160_medium.jpg2016-12-05 05:14 146K 
[IMG]83871757-pouring-ketchup-ft160_medium.jpg2016-12-05 05:08 119K 
[IMG]83871758-paysage-urbain-et-couverture-nuageuseft160_medium.jpg2016-12-05 05:11 150K 
[IMG]83871765-puerto-de-moganft160_medium.jpg2016-12-05 05:13 179K 
[IMG]83871767-polignano-italyft160_medium.jpg2016-12-05 05:13 138K 
[IMG]83871771-puerto-de-moganft160_medium.jpg2016-12-05 05:07 206K 
[IMG]83871777-the-coast-of-atlantic-oceanft160_medium.jpg2016-12-05 05:13 151K 
[IMG]83871779-the-coast-of-atlantic-oceanft160_medium.jpg2016-12-05 05:10 148K 
[IMG]83871780-four-glasses-of-wineft160_medium.jpg2016-12-05 05:13 149K 
[IMG]83871781-puerto-de-moganft160_medium.jpg2016-12-05 05:12 152K 
[IMG]83871782-the-coast-of-atlantic-oceanft160_medium.jpg2016-12-05 05:11 162K 
[IMG]83871785-the-coast-of-atlantic-oceanft160_medium.jpg2016-12-05 05:08 143K 
[IMG]83871789-the-coast-of-atlantic-oceanft160_medium.jpg2016-12-05 05:09 156K 
[IMG]83871795-sunset-over-the-coast-of-atlantic-oceanft160_medium.jpg2016-12-05 05:07 169K 
[IMG]83871797-sunset-over-the-coast-of-atlantic-oceanft160_medium.jpg2016-12-05 05:11 149K 
[IMG]83871802-young-runner-catching-her-breathft160_medium.jpg2016-12-05 05:12 145K 
[IMG]83871821-shetland-pony-horseft160_medium.jpg2016-12-05 05:12 172K 
[IMG]83871833-vintage-bicycleft160_medium.jpg2016-12-05 05:14 178K 
[IMG]83871836-biene-sammelt-nektarft160_medium.jpg2016-12-05 05:11 164K 
[IMG]83871840-wiener-riesenrad-waggonft160_medium.jpg2016-12-05 05:14 230K 
[IMG]83871841-radio-antennasft160_medium.jpg2016-12-05 05:07 121K 
[IMG]83871853-finestra-vetrataft160_medium.jpg2016-12-05 05:12 164K 
[IMG]83871859-wiener-riesenradft160_medium.jpg2016-12-05 05:12 176K 
[IMG]83871860-cielo-nuvolosoft160_medium.jpg2016-12-05 05:13 137K 
[IMG]83871870-fingerprint-on-police-fingerprint-card-ft160_medium.jpg2016-12-05 05:10 158K 
[IMG]83871874-eglise-avec-decoration-de-mariageft160_medium.jpg2016-12-05 05:13 175K 
[IMG]83871875-fingerprint-on-police-fingerprint-card-ft160_medium.jpg2016-12-05 05:08 148K 
[IMG]83871884--romantic-floral-background-with-roses-and-invitation-card-ft160_medium.jpg2016-12-05 05:13 174K 
[IMG]83871888-girl-with-a-basket-of-clothesft160_medium.jpg2016-12-05 05:11 195K 
[IMG]83871892-blumenrad-im-wiener-praterft160_medium.jpg2016-12-05 05:13 167K 
[IMG]83871904-blumenrad-im-wiener-praterft160_medium.jpg2016-12-05 05:09 146K 
[IMG]83871907-fishing-netft160_medium.jpg2016-12-05 05:07 216K 
[IMG]83871913-radio-antennasft160_medium.jpg2016-12-05 05:12 131K 
[IMG]83871919-fassade-mit-gespiegeltem-wiener-riesenradft160_medium.jpg2016-12-05 05:09 182K 
[IMG]83871926-podiumft160_medium.jpg2016-12-05 05:12 123K 
[IMG]83871928-medikamenteft160_medium.jpg2016-12-05 05:13 127K 
[IMG]83871937-merano-south-tyrol-italyft160_medium.jpg2016-12-05 05:10 185K 
[IMG]83871939-fresh-zuchinift160_medium.jpg2016-12-05 05:14 147K 
[IMG]83871943-orange-gerbera-auf-wieseft160_medium.jpg2016-12-05 05:12 216K 
[IMG]83871946-the-university-of-bucharest-founded-in-1864ft160_medium.jpg2016-12-05 05:08 187K 
[IMG]83871950-the-university-of-bucharest-founded-in-1864ft160_medium.jpg2016-12-05 05:09 195K 
[IMG]83871954-evening-on-the-railway-trackft160_medium.jpg2016-12-05 05:13 193K 
[IMG]83871955-the-university-of-bucharest-founded-in-1864ft160_medium.jpg2016-12-05 05:09 190K 
[IMG]83871958-the-university-of-bucharest-founded-in-1864ft160_medium.jpg2016-12-05 05:11 173K 
[IMG]83871959-seamless-pattern-with-the-usb-flash-drivesft160_medium.jpg2016-12-05 05:08 206K 
[IMG]83871961-crocodileft160_medium.jpg2016-12-05 05:08 199K 
[IMG]83871966-water-drop-icons-set-great-for-any-use-vector-eps10-ft160_medium.jpg2016-12-05 05:12 128K 
[IMG]83871974-portofino-italyft160_medium.jpg2016-12-05 05:14 168K 
[IMG]83871983-detailansicht-roter-sportwagenft160_medium.jpg2016-12-05 05:08 151K 
[IMG]83871986-protect-shield-vector-illustrationft160_medium.jpg2016-12-05 05:10 155K 
[IMG]83871987-brick-wallft160_medium.jpg2016-12-05 05:14 201K 
[IMG]83871988-fresh-mojitoft160_medium.jpg2016-12-05 05:10 131K 
[IMG]83871990-detailansicht-schwarzer-sportwagenft160_medium.jpg2016-12-05 05:10 150K 
[IMG]83871996-faucet-icons-set-great-for-any-use-vector-eps10-ft160_medium.jpg2016-12-05 05:11 130K 
[IMG]83872001-detailansicht-silbergrauer-sportwagenft160_medium.jpg2016-12-05 05:10 145K 
[IMG]83872007-the-autumn-road-ft160_medium.jpg2016-12-05 05:13 180K 
[IMG]83872010-aladza-painted-mosque-tetovo-macedoniaft160_medium.jpg2016-12-05 05:13 189K 
[IMG]83872023-roman-theatre-in-amman-jordan-ft160_medium.jpg2016-12-05 05:12 152K 

Apache/2.4.12 (Ubuntu) Server at pics.mein-artikel-design.de Port 443